Time,TemperatureF,DewpointF,PressureIn,WindDirection,WindDirectionDegrees,WindSpeedMPH,WindSpeedGustMPH,Humidity,HourlyPrecipIn,Conditions,Clouds,dailyrainin,SoftwareType,DateUTC
2013-06-16 00:00:00,56.5,47.2,30.03,South,170,5.8,5.8,71,0.00,SCT,,0.00,WeatherDisplay:10.37,2013-06-16 07:00:00,
2013-06-16 00:01:00,56.5,46.8,30.03,South,171,5.8,5.8,70,0.00,SCT,,0.00,WeatherDisplay:10.37,2013-06-16 07:01:00,
2013-06-16 00:02:00,56.5,47.2,30.03,ESE,122,4.6,4.6,71,0.00,SCT,,0.00,WeatherDisplay:10.37,2013-06-16 07:02:00,
2013-06-16 00:03:00,56.5,47.2,30.03,SSE,149,4.6,4.6,71,0.00,SCT,,0.00,WeatherDisplay:10.37,2013-06-16 07:03:00,
2013-06-16 00:05:00,56.6,46.9,30.03,SSE,154,1.0,5.0,70,0.00,SCT,,0.00,WeatherDisplay:10.37,2013-06-16 07:05:00,
2013-06-16 00:08:00,56.5,46.8,30.03,ESE,111,4.6,4.6,70,0.00,SCT,,0.00,WeatherDisplay:10.37,2013-06-16 07:08:00,
2013-06-16 00:09:00,56.5,47.2,30.03,SE,139,9.2,9.2,71,0.00,SCT,,0.00,WeatherDisplay:10.37,2013-06-16 07:09:00,
2013-06-16 00:10:00,56.5,47.2,30.03,SE,146,3.0,9.0,71,0.00,SCT,,0.00,WeatherDisplay:10.37,2013-06-16 07:10:00,
2013-06-16 00:13:00,56.5,47.2,30.03,SSE,149,3.5,3.5,71,0.00,SCT,,0.00,WeatherDisplay:10.37,2013-06-16 07:13:00,
2013-06-16 00:14:00,56.5,47.2,30.02,ENE,76,3.5,0.0,71,0.00,SCT,,0.00,WeatherDisplay:10.37,2013-06-16 07:14:00,
2013-06-16 00:15:00,56.5,47.2,30.03,NNE,27,3.5,3.5,71,0.00,SCT,,0.00,WeatherDisplay:10.37,2013-06-16 07:15:00,
2013-06-16 00:17:00,56.4,47.1,30.03,SE,144,1.2,1.2,71,0.00,SCT,,0.00,WeatherDisplay:10.37,2013-06-16 07:17:00,
2013-06-16 00:18:00,56.4,47.1,30.03,ESE,105,3.5,3.5,71,0.00,SCT,,0.00,WeatherDisplay:10.37,2013-06-16 07:18:00,
2013-06-16 00:19:00,56.4,47.1,30.03,ESE,103,3.5,3.5,71,0.00,SCT,,0.00,WeatherDisplay:10.37,2013-06-16 07:19:00,
2013-06-16 00:20:00,56.3,47.0,30.03,SSE,163,1.0,5.0,71,0.00,SCT,,0.00,WeatherDisplay:10.37,2013-06-16 07:20:00,
2013-06-16 00:21:00,56.2,46.9,30.02,SSE,151,3.5,3.5,71,0.00,SCT,,0.00,WeatherDisplay:10.37,2013-06-16 07:21:00,
2013-06-16 00:23:00,56.2,46.9,30.03,SE,138,3.0,3.0,71,0.00,SCT,,0.00,WeatherDisplay:10.37,2013-06-16 07:23:00,
2013-06-16 00:24:00,56.1,47.2,30.03,SSE,149,2.3,2.3,72,0.00,SCT,,0.00,WeatherDisplay:10.37,2013-06-16 07:24:00,
2013-06-16 00:25:00,56.1,47.2,30.02,SE,129,3.5,3.5,72,0.00,SCT,,0.00,WeatherDisplay:10.37,2013-06-16 07:25:00,
2013-06-16 00:28:00,56.2,46.9,30.03,SE,143,2.3,2.3,71,0.00,SCT,,0.00,WeatherDisplay:10.37,2013-06-16 07:28:00,
2013-06-16 00:29:00,56.2,46.9,30.02,SE,145,2.3,2.3,71,0.00,SCT,,0.00,WeatherDisplay:10.37,2013-06-16 07:29:00,
2013-06-16 00:30:00,56.2,46.9,30.02,SSW,205,3.5,3.5,71,0.00,SCT,,0.00,WeatherDisplay:10.37,2013-06-16 07:30:00,
2013-06-16 00:31:00,56.2,46.9,30.02,SSW,199,3.5,3.5,71,0.00,SCT,,0.00,WeatherDisplay:10.37,2013-06-16 07:31:00,
2013-06-16 00:34:00,56.2,46.9,30.02,ESE,120,3.5,3.5,71,0.00,SCT,,0.00,WeatherDisplay:10.37,2013-06-16 07:34:00,
2013-06-16 00:35:00,56.2,46.9,30.02,SSE,153,1.0,7.0,71,0.00,SCT,,0.00,WeatherDisplay:10.37,2013-06-16 07:35:00,
2013-06-16 00:36:00,56.1,46.8,30.02,ESE,111,8.1,8.1,71,0.00,SCT,,0.00,WeatherDisplay:10.37,2013-06-16 07:36:00,
2013-06-16 00:37:00,56.1,46.8,30.02,ESE,115,8.1,8.1,71,0.00,SCT,,0.00,WeatherDisplay:10.37,2013-06-16 07:37:00,
2013-06-16 00:39:00,56.0,46.7,30.02,SSE,154,3.5,3.5,71,0.00,SCT,,0.00,WeatherDisplay:10.37,2013-06-16 07:39:00,
2013-06-16 00:40:00,56.0,46.7,30.02,SSE,155,3.5,3.5,71,0.00,SCT,,0.00,WeatherDisplay:10.37,2013-06-16 07:40:00,
2013-06-16 00:42:00,56.0,47.1,30.02,SW,223,6.9,6.9,72,0.00,SCT,,0.00,WeatherDisplay:10.37,2013-06-16 07:42:00,
2013-06-16 00:43:00,55.9,46.6,30.02,SW,214,5.8,5.8,71,0.00,SCT,,0.00,WeatherDisplay:10.37,2013-06-16 07:43:00,
2013-06-16 00:44:00,55.9,47.0,30.02,ESE,111,3.5,3.5,72,0.00,SCT,,0.00,WeatherDisplay:10.37,2013-06-16 07:44:00,
2013-06-16 00:46:00,55.9,47.0,30.02,SE,141,5.8,5.8,72,0.00,SCT,,0.00,WeatherDisplay:10.37,2013-06-16 07:46:00,
2013-06-16 00:47:00,55.9,47.0,30.03,SE,138,5.8,5.8,72,0.00,SCT,,0.00,WeatherDisplay:10.37,2013-06-16 07:47:00,
2013-06-16 00:49:00,56.0,46.7,30.02,ESE,116,2.3,2.3,71,0.00,SCT,,0.00,WeatherDisplay:10.37,2013-06-16 07:49:00,
2013-06-16 00:52:00,56.0,46.7,30.03,South,169,4.6,4.6,71,0.00,SCT,,0.00,WeatherDisplay:10.37,2013-06-16 07:52:00,
2013-06-16 00:53:00,56.0,47.1,30.02,SE,128,4.6,4.6,72,0.00,SCT,,0.00,WeatherDisplay:10.37,2013-06-16 07:53:00,
2013-06-16 00:54:00,56.0,47.1,30.03,South,182,6.9,6.9,72,0.00,SCT,,0.00,WeatherDisplay:10.37,2013-06-16 07:54:00,
2013-06-16 00:57:00,55.9,47.0,30.02,ESE,119,2.3,2.3,72,0.00,SCT,,0.00,WeatherDisplay:10.37,2013-06-16 07:57:00,
2013-06-16 00:58:00,55.9,47.0,30.02,ESE,114,2.3,2.3,72,0.00,SCT,,0.00,WeatherDisplay:10.37,2013-06-16 07:58:00,
2013-06-16 00:59:00,55.9,47.0,30.02,ESE,119,2.3,2.3,72,0.00,SCT,,0.00,WeatherDisplay:10.37,2013-06-16 07:59:00,
2013-06-16 01:00:00,55.9,47.0,30.02,ESE,116,2.3,2.3,72,0.00,SCT,,0.00,WeatherDisplay:10.37,2013-06-16 08:00:00,
2013-06-16 01:02:00,55.9,47.4,30.02,ESE,105,3.5,3.5,73,0.00,SCT,,0.00,WeatherDisplay:10.37,2013-06-16 08:02:00,
2013-06-16 01:03:00,55.9,47.0,30.02,SSE,152,4.6,4.6,72,0.00,SCT,,0.00,WeatherDisplay:10.37,2013-06-16 08:03:00,
2013-06-16 01:05:00,55.9,47.0,30.02,SE,128,3.5,3.5,72,0.00,SCT,,0.00,WeatherDisplay:10.37,2013-06-16 08:05:00,
2013-06-16 01:08:00,55.9,47.4,30.02,ESE,120,4.0,4.0,73,0.00,SCT,,0.00,WeatherDisplay:10.37,2013-06-16 08:08:00,
2013-06-16 01:10:00,55.9,47.0,30.02,SE,141,3.0,3.0,72,0.00,SCT,,0.00,WeatherDisplay:10.37,2013-06-16 08:10:00,
2013-06-16 01:11:00,55.9,47.4,30.02,ESE,103,2.3,2.3,73,0.00,SCT,,0.00,WeatherDisplay:10.37,2013-06-16 08:11:00,
2013-06-16 01:13:00,55.9,47.0,30.02,ENE,65,2.3,2.3,72,0.00,SCT,,0.00,WeatherDisplay:10.37,2013-06-16 08:13:00,
2013-06-16 01:16:00,55.9,47.0,30.02,South,178,2.3,2.3,72,0.00,SCT,,0.00,WeatherDisplay:10.37,2013-06-16 08:16:00,
2013-06-16 01:17:00,55.9,47.0,30.02,SSE,155,2.3,2.3,72,0.00,SCT,,0.00,WeatherDisplay:10.37,2013-06-16 08:17:00,
2013-06-16 01:18:00,55.8,46.9,30.02,ESE,122,5.8,5.8,72,0.00,SCT,,0.00,WeatherDisplay:10.37,2013-06-16 08:18:00,
2013-06-16 01:21:00,55.8,46.9,30.02,SE,132,5.8,5.8,72,0.00,SCT,,0.00,WeatherDisplay:10.37,2013-06-16 08:21:00,
2013-06-16 01:22:00,55.8,46.9,30.02,SE,131,5.8,5.8,72,0.00,SCT,,0.00,WeatherDisplay:10.37,2013-06-16 08:22:00,
2013-06-16 01:23:00,55.8,46.9,30.02,East,97,3.5,3.5,72,0.00,SCT,,0.00,WeatherDisplay:10.37,2013-06-16 08:23:00,
2013-06-16 01:24:00,55.8,46.9,30.02,ESE,106,6.9,6.9,72,0.00,SCT,,0.00,WeatherDisplay:10.37,2013-06-16 08:24:00,
2013-06-16 01:27:00,55.8,47.3,30.02,SE,141,1.2,1.2,73,0.00,SCT,,0.00,WeatherDisplay:10.37,2013-06-16 08:27:00,
2013-06-16 01:28:00,55.7,46.8,30.02,SE,140,1.2,1.2,72,0.00,SCT,,0.00,WeatherDisplay:10.37,2013-06-16 08:28:00,
2013-06-16 01:31:00,55.8,46.9,30.02,SE,140,1.2,1.2,72,0.00,SCT,,0.00,WeatherDisplay:10.37,2013-06-16 08:31:00,
2013-06-16 01:33:00,55.8,46.5,30.02,SE,129,1.2,1.2,71,0.00,SCT,,0.00,WeatherDisplay:10.37,2013-06-16 08:33:00,
2013-06-16 01:34:00,55.8,46.9,30.02,SE,129,1.2,1.2,72,0.00,SCT,,0.00,WeatherDisplay:10.37,2013-06-16 08:34:00,
2013-06-16 01:36:00,55.7,46.4,30.02,SE,129,3.5,3.5,71,0.00,SCT,,0.00,WeatherDisplay:10.37,2013-06-16 08:36:00,
2013-06-16 01:38:00,55.8,46.5,30.02,SE,129,2.0,2.0,71,0.00,SCT,,0.00,WeatherDisplay:10.37,2013-06-16 08:38:00,
2013-06-16 01:39:00,55.8,46.5,30.02,SW,233,2.3,2.3,71,0.00,SCT,,0.00,WeatherDisplay:10.37,2013-06-16 08:39:00,
2013-06-16 01:42:00,55.8,46.5,30.02,East,100,2.3,2.3,71,0.00,SCT,,0.00,WeatherDisplay:10.37,2013-06-16 08:42:00,
2013-06-16 01:43:00,55.8,46.5,30.02,South,177,2.3,2.3,71,0.00,SCT,,0.00,WeatherDisplay:10.37,2013-06-16 08:43:00,
2013-06-16 01:44:00,55.8,46.5,30.02,South,177,2.3,2.3,71,0.00,SCT,,0.00,WeatherDisplay:10.37,2013-06-16 08:44:00,
2013-06-16 01:45:00,55.7,46.4,30.02,SE,143,3.5,3.5,71,0.00,SCT,,0.00,WeatherDisplay:10.37,2013-06-16 08:45:00,
2013-06-16 01:48:00,55.7,46.8,30.02,ENE,67,3.5,3.5,72,0.00,SCT,,0.00,WeatherDisplay:10.37,2013-06-16 08:48:00,
2013-06-16 01:49:00,55.7,46.4,30.02,NE,45,3.5,3.5,71,0.00,SCT,,0.00,WeatherDisplay:10.37,2013-06-16 08:49:00,
2013-06-16 01:50:00,55.7,46.8,30.02,ESE,117,3.5,3.5,72,0.00,SCT,,0.00,WeatherDisplay:10.37,2013-06-16 08:50:00,
2013-06-16 01:51:00,55.6,46.7,30.02,ESE,119,4.6,4.6,72,0.00,SCT,,0.00,WeatherDisplay:10.37,2013-06-16 08:51:00,
2013-06-16 01:52:00,55.6,46.7,30.03,ESE,112,3.5,3.5,72,0.00,SCT,,0.00,WeatherDisplay:10.37,2013-06-16 08:52:00,
2013-06-16 01:53:00,55.6,46.7,30.02,SE,137,3.5,3.5,72,0.00,SCT,,0.00,WeatherDisplay:10.37,2013-06-16 08:53:00,
2013-06-16 01:54:00,55.5,46.6,30.02,ESE,117,3.5,3.5,72,0.00,SCT,,0.00,WeatherDisplay:10.37,2013-06-16 08:54:00,
2013-06-16 01:56:00,55.5,46.6,30.02,SSW,194,1.2,1.2,72,0.00,SCT,,0.00,WeatherDisplay:10.37,2013-06-16 08:56:00,
2013-06-16 01:58:00,55.4,46.9,30.02,SE,127,1.2,1.2,73,0.00,SCT,,0.00,WeatherDisplay:10.37,2013-06-16 08:58:00,
2013-06-16 01:59:00,55.4,46.5,30.02,SE,127,2.3,0.0,72,0.00,SCT,,0.00,WeatherDisplay:10.37,2013-06-16 08:59:00,
2013-06-16 02:01:00,55.4,46.5,30.03,SE,127,1.2,1.2,72,0.00,SCT,,0.00,WeatherDisplay:10.37,2013-06-16 09:01:00,
2013-06-16 02:03:00,55.4,46.5,30.02,SE,126,2.3,2.3,72,0.00,SCT,,0.00,WeatherDisplay:10.37,2013-06-16 09:03:00,
2013-06-16 02:04:00,55.4,46.5,30.02,SE,126,2.3,2.3,72,0.00,SCT,,0.00,WeatherDisplay:10.37,2013-06-16 09:04:00,
2013-06-16 02:05:00,55.4,46.5,30.02,SE,135,0.0,3.0,72,0.00,SCT,,0.00,WeatherDisplay:10.37,2013-06-16 09:05:00,
2013-06-16 02:06:00,55.4,46.5,30.02,SE,135,3.5,3.5,72,0.00,SCT,,0.00,WeatherDisplay:10.37,2013-06-16 09:06:00,
2013-06-16 02:08:00,55.4,46.5,30.03,SE,135,2.3,2.3,72,0.00,SCT,,0.00,WeatherDisplay:10.37,2013-06-16 09:08:00,
2013-06-16 02:09:00,55.4,46.5,30.02,SE,135,3.5,3.5,72,0.00,SCT,,0.00,WeatherDisplay:10.37,2013-06-16 09:09:00,
2013-06-16 02:11:00,55.4,46.5,30.03,SE,128,3.5,3.5,72,0.00,SCT,,0.00,WeatherDisplay:10.37,2013-06-16 09:11:00,
2013-06-16 02:12:00,55.4,46.5,30.02,ESE,103,3.5,3.5,72,0.00,SCT,,0.00,WeatherDisplay:10.37,2013-06-16 09:12:00,
2013-06-16 02:14:00,55.3,46.4,30.02,SE,135,3.5,3.5,72,0.00,SCT,,0.00,WeatherDisplay:10.37,2013-06-16 09:14:00,
2013-06-16 02:16:00,55.3,46.4,30.03,East,85,3.5,3.5,72,0.00,SCT,,0.00,WeatherDisplay:10.37,2013-06-16 09:16:00,
2013-06-16 02:18:00,55.3,46.8,30.03,East,85,1.2,1.2,73,0.00,SCT,,0.00,WeatherDisplay:10.37,2013-06-16 09:18:00,
2013-06-16 02:19:00,55.3,46.4,30.03,East,85,1.2,1.2,72,0.00,SCT,,0.00,WeatherDisplay:10.37,2013-06-16 09:19:00,
2013-06-16 02:22:00,55.3,46.4,30.03,East,85,0.0,0.0,72,0.00,SCT,,0.00,WeatherDisplay:10.37,2013-06-16 09:22:00,
2013-06-16 02:24:00,55.3,46.4,30.02,East,85,0.0,0.0,72,0.00,SCT,,0.00,WeatherDisplay:10.37,2013-06-16 09:24:00,
2013-06-16 02:27:00,55.3,46.4,30.03,East,85,0.0,0.0,72,0.00,SCT,,0.00,WeatherDisplay:10.37,2013-06-16 09:27:00,
2013-06-16 02:28:00,55.3,46.4,30.03,East,85,0.0,0.0,72,0.00,SCT,,0.00,WeatherDisplay:10.37,2013-06-16 09:28:00,
2013-06-16 02:29:00,55.2,46.3,30.03,East,85,0.0,0.0,72,0.00,SCT,,0.00,WeatherDisplay:10.37,2013-06-16 09:29:00,
2013-06-16 02:30:00,55.2,46.3,30.03,East,85,0.0,0.0,72,0.00,SCT,,0.00,WeatherDisplay:10.37,2013-06-16 09:30:00,
2013-06-16 02:33:00,55.2,46.3,30.03,East,85,0.0,0.0,72,0.00,SCT,,0.00,WeatherDisplay:10.37,2013-06-16 09:33:00,
2013-06-16 02:34:00,55.2,46.0,30.03,East,85,0.0,0.0,71,0.00,SCT,,0.00,WeatherDisplay:10.37,2013-06-16 09:34:00,
2013-06-16 02:35:00,55.2,46.3,30.03,East,85,0.0,0.0,72,0.00,SCT,,0.00,WeatherDisplay:10.37,2013-06-16 09:35:00,
2013-06-16 02:36:00,55.1,46.2,30.02,East,85,0.0,0.0,72,0.00,SCT,,0.00,WeatherDisplay:10.37,2013-06-16 09:36:00,
2013-06-16 02:38:00,55.1,45.9,30.03,East,85,0.0,0.0,71,0.00,SCT,,0.00,WeatherDisplay:10.37,2013-06-16 09:38:00,
2013-06-16 02:39:00,55.1,45.9,30.03,East,85,0.0,0.0,71,0.00,SCT,,0.00,WeatherDisplay:10.37,2013-06-16 09:39:00,
2013-06-16 02:40:00,55.1,46.2,30.03,East,85,0.0,0.0,72,0.00,SCT,,0.00,WeatherDisplay:10.37,2013-06-16 09:40:00,
2013-06-16 02:42:00,55.0,46.1,30.03,East,85,0.0,0.0,72,0.00,SCT,,0.00,WeatherDisplay:10.37,2013-06-16 09:42:00,
2013-06-16 02:43:00,55.0,45.8,30.03,East,85,0.0,0.0,71,0.00,SCT,,0.00,WeatherDisplay:10.37,2013-06-16 09:43:00,
2013-06-16 02:44:00,55.0,45.8,30.03,SE,141,3.0,3.0,71,0.00,SCT,,0.00,WeatherDisplay:10.37,2013-06-16 09:44:00,
2013-06-16 02:45:00,54.9,45.7,30.03,SE,136,3.5,3.5,71,0.00,SCT,,0.00,WeatherDisplay:10.37,2013-06-16 09:45:00,
2013-06-16 02:47:00,54.9,46.0,30.02,SE,136,0.0,0.0,72,0.00,SCT,,0.00,WeatherDisplay:10.37,2013-06-16 09:47:00,
2013-06-16 02:48:00,54.8,46.3,30.03,SE,136,0.0,0.0,73,0.00,SCT,,0.00,WeatherDisplay:10.37,2013-06-16 09:48:00,
2013-06-16 02:50:00,54.8,46.3,30.03,SE,125,3.5,3.5,73,0.00,SCT,,0.00,WeatherDisplay:10.37,2013-06-16 09:50:00,
2013-06-16 02:51:00,54.8,46.3,30.03,ESE,116,3.5,3.5,73,0.00,SCT,,0.00,WeatherDisplay:10.37,2013-06-16 09:51:00,
2013-06-16 02:52:00,54.8,46.3,30.02,ESE,113,3.5,3.5,73,0.00,SCT,,0.00,WeatherDisplay:10.37,2013-06-16 09:52:00,
2013-06-16 02:54:00,54.8,46.3,30.03,ESE,113,1.2,1.2,73,0.00,SCT,,0.00,WeatherDisplay:10.37,2013-06-16 09:54:00,
2013-06-16 02:56:00,54.8,46.3,30.02,SSW,207,2.3,2.3,73,0.00,SCT,,0.00,WeatherDisplay:10.37,2013-06-16 09:56:00,
2013-06-16 02:57:00,54.8,46.3,30.02,ESE,123,4.0,4.0,73,0.00,SCT,,0.00,WeatherDisplay:10.37,2013-06-16 09:57:00,
2013-06-16 02:58:00,54.8,46.3,30.02,SE,141,3.5,3.5,73,0.00,SCT,,0.00,WeatherDisplay:10.37,2013-06-16 09:58:00,
2013-06-16 02:59:00,54.8,46.3,30.02,SSW,195,2.3,2.3,73,0.00,SCT,,0.00,WeatherDisplay:10.37,2013-06-16 09:59:00,
2013-06-16 03:01:00,54.8,46.3,30.02,SE,130,1.2,1.2,73,0.00,SCT,,0.00,WeatherDisplay:10.37,2013-06-16 10:01:00,
2013-06-16 03:02:00,54.8,46.3,30.02,SE,130,1.2,1.2,73,0.00,SCT,,0.00,WeatherDisplay:10.37,2013-06-16 10:02:00,
2013-06-16 03:03:00,54.8,46.7,30.02,SE,124,3.5,3.5,74,0.00,SCT,,0.00,WeatherDisplay:10.37,2013-06-16 10:03:00,
2013-06-16 03:05:00,54.8,46.3,30.02,SE,124,0.0,0.3,73,0.00,SCT,,0.00,WeatherDisplay:10.37,2013-06-16 10:05:00,
2013-06-16 03:06:00,54.8,46.3,30.02,SSE,147,2.3,2.3,73,0.00,SCT,,0.00,WeatherDisplay:10.37,2013-06-16 10:06:00,
2013-06-16 03:07:00,54.8,46.3,30.02,SE,144,2.3,2.3,73,0.00,SCT,,0.00,WeatherDisplay:10.37,2013-06-16 10:07:00,
2013-06-16 03:08:00,54.8,46.3,30.02,SE,143,1.2,1.2,73,0.00,SCT,,0.00,WeatherDisplay:10.37,2013-06-16 10:08:00,
2013-06-16 03:09:00,54.8,46.3,30.02,SE,143,0.0,0.0,73,0.00,SCT,,0.00,WeatherDisplay:10.37,2013-06-16 10:09:00,
2013-06-16 03:11:00,54.9,46.4,30.02,SSE,147,1.2,0.0,73,0.00,SCT,,0.00,WeatherDisplay:10.37,2013-06-16 10:11:00,
2013-06-16 03:12:00,54.9,46.4,30.02,SSE,147,0.0,0.0,73,0.00,SCT,,0.00,WeatherDisplay:10.37,2013-06-16 10:12:00,
2013-06-16 03:13:00,54.9,46.4,30.02,SSE,147,0.0,0.0,73,0.00,SCT,,0.00,WeatherDisplay:10.37,2013-06-16 10:13:00,
2013-06-16 03:14:00,54.9,46.4,30.02,SSE,147,0.0,0.0,73,0.00,SCT,,0.00,WeatherDisplay:10.37,2013-06-16 10:14:00,
2013-06-16 03:17:00,54.8,46.3,30.02,SSE,147,1.2,0.0,73,0.00,SCT,,0.00,WeatherDisplay:10.37,2013-06-16 10:17:00,
2013-06-16 03:18:00,54.8,46.3,30.02,SE,131,1.0,1.0,73,0.00,SCT,,0.00,WeatherDisplay:10.37,2013-06-16 10:18:00,
2013-06-16 03:19:00,54.8,46.3,30.02,SE,130,0.0,0.6,73,0.00,SCT,,0.00,WeatherDisplay:10.37,2013-06-16 10:19:00,
2013-06-16 03:20:00,54.8,46.3,30.02,ESE,123,3.5,3.5,73,0.00,SCT,,0.00,WeatherDisplay:10.37,2013-06-16 10:20:00,
2013-06-16 03:22:00,54.8,46.3,30.02,SE,136,2.3,2.3,73,0.00,SCT,,0.00,WeatherDisplay:10.37,2013-06-16 10:22:00,
2013-06-16 03:24:00,54.8,46.3,30.02,SE,136,1.2,0.0,73,0.00,SCT,,0.00,WeatherDisplay:10.37,2013-06-16 10:24:00,
2013-06-16 03:25:00,54.8,46.3,30.02,SE,136,1.2,1.2,73,0.00,SCT,,0.00,WeatherDisplay:10.37,2013-06-16 10:25:00,
2013-06-16 03:28:00,54.7,46.2,30.02,SE,136,1.0,0.0,73,0.00,SCT,,0.00,WeatherDisplay:10.37,2013-06-16 10:28:00,
2013-06-16 03:29:00,54.8,45.9,30.02,SE,136,0.0,0.0,72,0.00,SCT,,0.00,WeatherDisplay:10.37,2013-06-16 10:29:00,
2013-06-16 03:30:00,54.7,46.2,30.02,SE,136,0.0,0.0,73,0.00,SCT,,0.00,WeatherDisplay:10.37,2013-06-16 10:30:00,
2013-06-16 03:33:00,54.7,46.2,30.03,SE,136,0.0,0.0,73,0.00,SCT,,0.00,WeatherDisplay:10.37,2013-06-16 10:33:00,
2013-06-16 03:35:00,54.7,46.2,30.02,SE,136,0.0,0.0,73,0.00,SCT,,0.00,WeatherDisplay:10.37,2013-06-16 10:35:00,
2013-06-16 03:37:00,54.7,46.2,30.02,SE,136,0.0,0.0,73,0.00,SCT,,0.00,WeatherDisplay:10.37,2013-06-16 10:37:00,
2013-06-16 03:38:00,54.7,46.2,30.03,SE,136,0.0,0.0,73,0.00,SCT,,0.00,WeatherDisplay:10.37,2013-06-16 10:38:00,
2013-06-16 03:40:00,54.7,46.2,30.02,SE,136,0.0,0.0,73,0.00,SCT,,0.00,WeatherDisplay:10.37,2013-06-16 10:40:00,
2013-06-16 03:41:00,54.6,46.1,30.02,SE,136,0.0,0.0,73,0.00,SCT,,0.00,WeatherDisplay:10.37,2013-06-16 10:41:00,
2013-06-16 03:42:00,54.6,46.1,30.02,SW,220,0.0,0.0,73,0.00,SCT,,0.00,WeatherDisplay:10.37,2013-06-16 10:42:00,
2013-06-16 03:43:00,54.6,46.5,30.03,SE,129,0.0,0.0,74,0.00,SCT,,0.00,WeatherDisplay:10.37,2013-06-16 10:43:00,
2013-06-16 03:45:00,54.6,46.5,30.02,SE,128,0.0,0.0,74,0.00,SCT,,0.00,WeatherDisplay:10.37,2013-06-16 10:45:00,
2013-06-16 03:46:00,54.6,46.5,30.03,SE,128,0.0,0.0,74,0.00,SCT,,0.00,WeatherDisplay:10.37,2013-06-16 10:46:00,
2013-06-16 03:47:00,54.6,46.5,30.03,SE,128,0.0,0.0,74,0.00,SCT,,0.00,WeatherDisplay:10.37,2013-06-16 10:47:00,
2013-06-16 03:49:00,54.6,46.5,30.03,SE,128,0.0,0.0,74,0.00,SCT,,0.00,WeatherDisplay:10.37,2013-06-16 10:49:00,
2013-06-16 03:50:00,54.6,46.5,30.03,SE,128,0.0,0.0,74,0.00,SCT,,0.00,WeatherDisplay:10.37,2013-06-16 10:50:00,
2013-06-16 03:51:00,54.6,46.5,30.03,South,190,0.0,0.0,74,0.00,SCT,,0.00,WeatherDisplay:10.37,2013-06-16 10:51:00,
2013-06-16 03:52:00,54.6,46.5,30.02,SSW,196,0.0,0.0,74,0.00,SCT,,0.00,WeatherDisplay:10.37,2013-06-16 10:52:00,
2013-06-16 03:53:00,54.6,46.5,30.02,SE,131,0.0,0.5,74,0.00,SCT,,0.00,WeatherDisplay:10.37,2013-06-16 10:53:00,
2013-06-16 03:54:00,54.6,46.5,30.02,SE,142,2.3,0.0,74,0.00,SCT,,0.00,WeatherDisplay:10.37,2013-06-16 10:54:00,
2013-06-16 03:55:00,54.6,46.5,30.03,SE,142,0.0,0.0,74,0.00,SCT,,0.00,WeatherDisplay:10.37,2013-06-16 10:55:00,
2013-06-16 03:57:00,54.6,46.5,30.02,SE,142,0.0,0.0,74,0.00,SCT,,0.00,WeatherDisplay:10.37,2013-06-16 10:57:00,
2013-06-16 03:58:00,54.6,46.1,30.03,SE,142,0.0,0.0,73,0.00,SCT,,0.00,WeatherDisplay:10.37,2013-06-16 10:58:00,
2013-06-16 03:59:00,54.6,46.1,30.03,SE,142,0.0,0.0,73,0.00,SCT,,0.00,WeatherDisplay:10.37,2013-06-16 10:59:00,
2013-06-16 04:02:00,54.6,46.1,30.03,NE,55,1.2,1.2,73,0.00,SCT,,0.00,WeatherDisplay:10.37,2013-06-16 11:02:00,
2013-06-16 04:03:00,54.5,46.4,30.03,NE,56,0.0,0.0,74,0.00,SCT,,0.00,WeatherDisplay:10.37,2013-06-16 11:03:00,
2013-06-16 04:04:00,54.5,46.4,30.03,ENE,69,0.0,0.0,74,0.00,SCT,,0.00,WeatherDisplay:10.37,2013-06-16 11:04:00,
2013-06-16 04:05:00,54.5,46.0,30.03,ENE,69,0.0,0.0,73,0.00,SCT,,0.00,WeatherDisplay:10.37,2013-06-16 11:05:00,
2013-06-16 04:07:00,54.5,46.4,30.03,ENE,69,0.0,0.0,74,0.00,SCT,,0.00,WeatherDisplay:10.37,2013-06-16 11:07:00,
2013-06-16 04:09:00,54.4,46.3,30.03,SE,136,2.3,2.3,74,0.00,SCT,,0.00,WeatherDisplay:10.37,2013-06-16 11:09:00,
2013-06-16 04:11:00,54.4,46.3,30.03,SE,135,0.0,0.0,74,0.00,SCT,,0.00,WeatherDisplay:10.37,2013-06-16 11:11:00,
2013-06-16 04:12:00,54.4,46.3,30.03,SE,135,0.0,0.0,74,0.00,SCT,,0.00,WeatherDisplay:10.37,2013-06-16 11:12:00,
2013-06-16 04:14:00,54.4,46.3,30.03,SE,136,0.0,0.0,74,0.00,SCT,,0.00,WeatherDisplay:10.37,2013-06-16 11:14:00,
2013-06-16 04:16:00,54.3,46.2,30.03,SE,135,0.0,0.0,74,0.00,SCT,,0.00,WeatherDisplay:10.37,2013-06-16 11:16:00,
2013-06-16 04:17:00,54.3,46.2,30.03,SE,135,0.0,0.0,74,0.00,SCT,,0.00,WeatherDisplay:10.37,2013-06-16 11:17:00,
2013-06-16 04:19:00,54.3,45.8,30.03,SE,135,0.0,0.0,73,0.00,SCT,,0.00,WeatherDisplay:10.37,2013-06-16 11:19:00,
2013-06-16 04:20:00,54.2,45.7,30.03,SE,135,0.0,0.0,73,0.00,SCT,,0.00,WeatherDisplay:10.37,2013-06-16 11:20:00,
2013-06-16 04:22:00,54.2,45.7,30.03,SE,135,0.0,0.0,73,0.00,SCT,,0.00,WeatherDisplay:10.37,2013-06-16 11:22:00,
2013-06-16 04:24:00,54.1,45.6,30.03,SE,135,0.0,0.0,73,0.00,SCT,,0.00,WeatherDisplay:10.37,2013-06-16 11:24:00,
2013-06-16 04:25:00,54.1,45.6,30.03,SE,135,0.0,0.0,73,0.00,SCT,,0.00,WeatherDisplay:10.37,2013-06-16 11:25:00,
2013-06-16 04:26:00,54.1,45.6,30.03,SE,135,0.0,0.0,73,0.00,SCT,,0.00,WeatherDisplay:10.37,2013-06-16 11:26:00,
2013-06-16 04:27:00,54.1,45.6,30.03,SE,135,0.0,0.0,73,0.00,SCT,,0.00,WeatherDisplay:10.37,2013-06-16 11:27:00,
2013-06-16 04:28:00,54.1,45.6,30.03,SE,135,0.0,0.0,73,0.00,SCT,,0.00,WeatherDisplay:10.37,2013-06-16 11:28:00,
2013-06-16 04:30:00,54.0,45.5,30.03,SE,135,0.0,0.0,73,0.00,SCT,,0.00,WeatherDisplay:10.37,2013-06-16 11:30:00,
2013-06-16 04:32:00,54.0,45.5,30.03,SE,135,0.0,0.0,73,0.00,SCT,,0.00,WeatherDisplay:10.37,2013-06-16 11:32:00,
2013-06-16 04:33:00,54.0,45.5,30.03,SE,135,0.0,0.0,73,0.00,SCT,,0.00,WeatherDisplay:10.37,2013-06-16 11:33:00,
2013-06-16 04:35:00,53.9,45.4,30.03,SE,133,1.0,0.0,73,0.00,SCT,,0.00,WeatherDisplay:10.37,2013-06-16 11:35:00,
2013-06-16 04:37:00,53.9,45.8,30.03,ESE,120,2.3,2.3,74,0.00,SCT,,0.00,WeatherDisplay:10.37,2013-06-16 11:37:00,
2013-06-16 04:38:00,53.9,45.8,30.03,East,87,5.0,5.0,74,0.00,SCT,,0.00,WeatherDisplay:10.37,2013-06-16 11:38:00,
2013-06-16 04:39:00,53.9,45.8,30.03,East,95,4.6,4.6,74,0.00,SCT,,0.00,WeatherDisplay:10.37,2013-06-16 11:39:00,
2013-06-16 04:40:00,53.9,46.2,30.03,ESE,122,0.0,5.0,75,0.00,SCT,,0.00,WeatherDisplay:10.37,2013-06-16 11:40:00,
2013-06-16 04:41:00,53.9,46.2,30.03,East,91,1.2,1.2,75,0.00,SCT,,0.00,WeatherDisplay:10.37,2013-06-16 11:41:00,
2013-06-16 04:42:00,53.9,46.5,30.03,ESE,106,1.2,1.2,76,0.00,SCT,,0.00,WeatherDisplay:10.37,2013-06-16 11:42:00,
2013-06-16 04:44:00,53.9,46.5,30.03,East,94,2.0,2.0,76,0.00,SCT,,0.00,WeatherDisplay:10.37,2013-06-16 11:44:00,
2013-06-16 04:45:00,53.9,46.2,30.03,East,95,2.3,2.3,75,0.00,SCT,,0.00,WeatherDisplay:10.37,2013-06-16 11:45:00,
2013-06-16 04:46:00,53.9,46.2,30.03,East,95,1.2,1.2,75,0.00,SCT,,0.00,WeatherDisplay:10.37,2013-06-16 11:46:00,
2013-06-16 04:48:00,53.9,46.2,30.03,East,95,1.2,1.2,75,0.00,SCT,,0.00,WeatherDisplay:10.37,2013-06-16 11:48:00,
2013-06-16 04:50:00,53.9,46.2,30.03,ENE,67,2.3,2.3,75,0.00,SCT,,0.00,WeatherDisplay:10.37,2013-06-16 11:50:00,
2013-06-16 04:51:00,53.8,46.1,30.03,ENE,66,2.3,2.3,75,0.00,SCT,,0.00,WeatherDisplay:10.37,2013-06-16 11:51:00,
2013-06-16 04:52:00,53.8,46.4,30.03,SE,140,2.3,2.3,76,0.00,SCT,,0.00,WeatherDisplay:10.37,2013-06-16 11:52:00,
2013-06-16 04:54:00,53.8,46.4,30.03,SE,141,2.0,2.0,76,0.00,SCT,,0.00,WeatherDisplay:10.37,2013-06-16 11:54:00,
2013-06-16 04:56:00,53.8,46.4,30.03,SE,133,2.3,2.3,76,0.00,SCT,,0.00,WeatherDisplay:10.37,2013-06-16 11:56:00,
2013-06-16 04:58:00,53.8,46.4,30.04,East,87,3.0,3.0,76,0.00,SCT,,0.00,WeatherDisplay:10.37,2013-06-16 11:58:00,
2013-06-16 05:01:00,53.7,46.3,30.04,WSW,245,3.5,3.5,76,0.00,SCT,,0.00,WeatherDisplay:10.37,2013-06-16 12:01:00,
2013-06-16 05:02:00,53.7,46.3,30.04,SE,145,3.5,3.5,76,0.00,SCT,,0.00,WeatherDisplay:10.37,2013-06-16 12:02:00,
2013-06-16 05:03:00,53.7,46.3,30.03,SE,133,3.5,3.5,76,0.00,SCT,,0.00,WeatherDisplay:10.37,2013-06-16 12:03:00,
2013-06-16 05:04:00,53.7,46.3,30.04,SE,126,2.0,2.0,76,0.00,SCT,,0.00,WeatherDisplay:10.37,2013-06-16 12:04:00,
2013-06-16 05:06:00,53.7,46.3,30.04,SE,129,1.2,1.2,76,0.00,SCT,,0.00,WeatherDisplay:10.37,2013-06-16 12:06:00,
2013-06-16 05:08:00,53.7,46.3,30.04,SE,128,3.0,3.0,76,0.00,SCT,,0.00,WeatherDisplay:10.37,2013-06-16 12:08:00,
2013-06-16 05:09:00,53.7,46.7,30.04,SE,129,3.5,3.5,77,0.00,SCT,,0.00,WeatherDisplay:10.37,2013-06-16 12:09:00,
2013-06-16 05:10:00,53.7,46.3,30.04,SE,129,3.5,3.5,76,0.00,SCT,,0.00,WeatherDisplay:10.37,2013-06-16 12:10:00,
2013-06-16 05:11:00,53.7,46.7,30.04,SE,129,0.0,0.1,77,0.00,SCT,,0.00,WeatherDisplay:10.37,2013-06-16 12:11:00,
2013-06-16 05:13:00,53.7,46.7,30.04,East,84,2.3,2.3,77,0.00,SCT,,0.00,WeatherDisplay:10.37,2013-06-16 12:13:00,
2013-06-16 05:14:00,53.7,46.7,30.04,ESE,115,2.3,2.3,77,0.00,SCT,,0.00,WeatherDisplay:10.37,2013-06-16 12:14:00,
2013-06-16 05:15:00,53.7,46.7,30.04,ENE,60,2.3,2.3,77,0.00,SCT,,0.00,WeatherDisplay:10.37,2013-06-16 12:15:00,
2013-06-16 05:17:00,53.7,46.7,30.04,ENE,75,2.3,2.3,77,0.00,SCT,,0.00,WeatherDisplay:10.37,2013-06-16 12:17:00,
2013-06-16 05:18:00,53.7,46.7,30.04,ENE,74,2.3,2.3,77,0.00,SCT,,0.00,WeatherDisplay:10.37,2013-06-16 12:18:00,
2013-06-16 05:20:00,53.7,46.7,30.04,SSE,155,3.5,3.5,77,0.00,SCT,,0.00,WeatherDisplay:10.37,2013-06-16 12:20:00,
2013-06-16 05:21:00,53.7,46.7,30.04,ESE,105,1.2,1.2,77,0.00,SCT,,0.00,WeatherDisplay:10.37,2013-06-16 12:21:00,
2013-06-16 05:23:00,53.7,46.7,30.04,East,97,1.2,1.2,77,0.00,SCT,,0.00,WeatherDisplay:10.37,2013-06-16 12:23:00,
2013-06-16 05:24:00,53.7,46.7,30.05,East,97,1.2,0.0,77,0.00,SCT,,0.00,WeatherDisplay:10.37,2013-06-16 12:24:00,
2013-06-16 05:25:00,53.7,46.7,30.04,SE,125,0.0,3.0,77,0.00,SCT,,0.00,WeatherDisplay:10.37,2013-06-16 12:25:00,
2013-06-16 05:27:00,53.7,46.7,30.04,SE,132,1.2,1.2,77,0.00,SCT,,0.00,WeatherDisplay:10.37,2013-06-16 12:27:00,
2013-06-16 05:29:00,53.7,46.7,30.04,ESE,123,2.3,2.3,77,0.00,SCT,,0.00,WeatherDisplay:10.37,2013-06-16 12:29:00,
2013-06-16 05:30:00,53.8,46.8,30.04,SSW,204,5.8,5.8,77,0.00,SCT,,0.00,WeatherDisplay:10.37,2013-06-16 12:30:00,
2013-06-16 05:32:00,53.8,46.8,30.04,ESE,123,3.0,3.0,77,0.00,SCT,,0.00,WeatherDisplay:10.37,2013-06-16 12:32:00,
2013-06-16 05:35:00,53.8,46.4,30.04,SE,144,4.6,4.6,76,0.00,SCT,,0.00,WeatherDisplay:10.37,2013-06-16 12:35:00,
2013-06-16 05:36:00,53.8,46.8,30.04,SSE,152,4.6,4.6,77,0.00,SCT,,0.00,WeatherDisplay:10.37,2013-06-16 12:36:00,
2013-06-16 05:38:00,53.8,46.8,30.04,East,99,5.8,5.8,77,0.00,SCT,,0.00,WeatherDisplay:10.37,2013-06-16 12:38:00,
2013-06-16 05:41:00,53.8,46.8,30.04,East,88,1.2,1.2,77,0.00,SCT,,0.00,WeatherDisplay:10.37,2013-06-16 12:41:00,
2013-06-16 05:43:00,53.8,46.8,30.04,ESE,109,3.5,3.5,77,0.00,SCT,,0.00,WeatherDisplay:10.37,2013-06-16 12:43:00,
2013-06-16 05:44:00,53.8,46.8,30.04,ESE,123,2.3,2.3,77,0.00,SCT,,0.00,WeatherDisplay:10.37,2013-06-16 12:44:00,
2013-06-16 05:46:00,53.9,46.9,30.04,ENE,76,3.5,3.5,77,0.00,SCT,,0.00,WeatherDisplay:10.37,2013-06-16 12:46:00,
2013-06-16 05:47:00,53.9,46.5,30.04,ESE,102,3.5,3.5,76,0.00,SCT,,0.00,WeatherDisplay:10.37,2013-06-16 12:47:00,
2013-06-16 05:49:00,53.9,46.5,30.04,South,169,2.3,2.3,76,0.00,SCT,,0.00,WeatherDisplay:10.37,2013-06-16 12:49:00,
2013-06-16 05:51:00,53.9,46.5,30.04,SW,227,1.2,0.0,76,0.00,SCT,,0.00,WeatherDisplay:10.37,2013-06-16 12:51:00,
2013-06-16 05:52:00,53.9,46.9,30.04,South,181,1.2,1.2,77,0.00,SCT,,0.00,WeatherDisplay:10.37,2013-06-16 12:52:00,
2013-06-16 05:53:00,54.0,47.0,30.04,SE,135,2.0,2.0,77,0.00,SCT,,0.00,WeatherDisplay:10.37,2013-06-16 12:53:00,
2013-06-16 05:54:00,53.9,46.9,30.04,SSE,165,3.5,3.5,77,0.00,SCT,,0.00,WeatherDisplay:10.37,2013-06-16 12:54:00,
2013-06-16 05:55:00,53.9,46.9,30.05,SE,145,1.2,1.2,77,0.00,SCT,,0.00,WeatherDisplay:10.37,2013-06-16 12:55:00,
2013-06-16 05:57:00,53.9,46.9,30.04,SSW,211,2.3,2.3,77,0.00,SCT,,0.00,WeatherDisplay:10.37,2013-06-16 12:57:00,
2013-06-16 05:58:00,53.9,46.5,30.04,South,187,2.3,2.3,76,0.00,SCT,,0.00,WeatherDisplay:10.37,2013-06-16 12:58:00,
2013-06-16 06:00:00,53.9,46.9,30.04,South,171,1.2,1.2,77,0.00,SCT,,0.00,WeatherDisplay:10.37,2013-06-16 13:00:00,
2013-06-16 06:02:00,53.9,46.9,30.04,SE,128,3.5,3.5,77,0.00,SCT,,0.00,WeatherDisplay:10.37,2013-06-16 13:02:00,
2013-06-16 06:03:00,53.9,46.9,30.04,SE,131,2.3,2.3,77,0.00,SCT,,0.00,WeatherDisplay:10.37,2013-06-16 13:03:00,
2013-06-16 06:04:00,53.9,46.9,30.05,SE,140,2.3,2.3,77,0.00,SCT,,0.00,WeatherDisplay:10.37,2013-06-16 13:04:00,
2013-06-16 06:06:00,54.0,47.0,30.04,SE,130,3.5,3.5,77,0.00,SCT,,0.00,WeatherDisplay:10.37,2013-06-16 13:06:00,
2013-06-16 06:08:00,54.2,47.1,30.05,SE,136,3.5,3.5,77,0.00,SCT,,0.00,WeatherDisplay:10.37,2013-06-16 13:08:00,
2013-06-16 06:09:00,54.3,47.2,30.05,SSE,148,3.5,3.5,77,0.00,SCT,,0.00,WeatherDisplay:10.37,2013-06-16 13:09:00,
2013-06-16 06:10:00,54.4,47.0,30.04,SE,143,5.8,5.8,76,0.00,SCT,,0.00,WeatherDisplay:10.37,2013-06-16 13:10:00,
2013-06-16 06:11:00,54.5,47.1,30.05,SSE,161,5.8,5.8,76,0.00,SCT,,0.00,WeatherDisplay:10.37,2013-06-16 13:11:00,
2013-06-16 06:13:00,54.6,47.2,30.04,ESE,118,3.5,3.5,76,0.00,SCT,,0.00,WeatherDisplay:10.37,2013-06-16 13:13:00,
2013-06-16 06:14:00,54.6,47.2,30.05,SE,137,3.5,3.5,76,0.00,SCT,,0.00,WeatherDisplay:10.37,2013-06-16 13:14:00,
2013-06-16 06:16:00,54.7,47.6,30.05,SE,146,3.5,3.5,77,0.00,SCT,,0.00,WeatherDisplay:10.37,2013-06-16 13:16:00,
2013-06-16 06:17:00,54.7,47.3,30.05,SSW,200,6.9,6.9,76,0.00,SCT,,0.00,WeatherDisplay:10.37,2013-06-16 13:17:00,
2013-06-16 06:19:00,54.8,47.7,30.04,SE,143,3.5,3.5,77,0.00,SCT,,0.00,WeatherDisplay:10.37,2013-06-16 13:19:00,
2013-06-16 06:20:00,54.9,47.8,30.04,SSE,156,1.0,7.0,77,0.00,SCT,,0.00,WeatherDisplay:10.37,2013-06-16 13:20:00,
2013-06-16 06:21:00,54.9,47.8,30.04,SE,127,3.5,3.5,77,0.00,SCT,,0.00,WeatherDisplay:10.37,2013-06-16 13:21:00,
2013-06-16 06:24:00,55.1,47.7,30.04,SE,127,3.0,3.0,76,0.00,SCT,,0.00,WeatherDisplay:10.37,2013-06-16 13:24:00,
2013-06-16 06:25:00,55.3,48.2,30.04,SSE,150,5.0,5.0,77,0.00,SCT,,0.00,WeatherDisplay:10.37,2013-06-16 13:25:00,
2013-06-16 06:27:00,55.4,48.0,30.04,SSW,206,3.5,3.5,76,0.00,SCT,,0.00,WeatherDisplay:10.37,2013-06-16 13:27:00,
2013-06-16 06:29:00,55.5,47.7,30.04,ESE,119,5.8,5.8,75,0.00,SCT,,0.00,WeatherDisplay:10.37,2013-06-16 13:29:00,
2013-06-16 06:30:00,55.5,47.7,30.04,West,276,5.8,5.8,75,0.00,SCT,,0.00,WeatherDisplay:10.37,2013-06-16 13:30:00,
2013-06-16 06:31:00,55.5,48.1,30.04,ESE,115,4.0,4.0,76,0.00,SCT,,0.00,WeatherDisplay:10.37,2013-06-16 13:31:00,
2013-06-16 06:33:00,55.6,47.4,30.04,ESE,115,3.5,3.5,74,0.00,SCT,,0.00,WeatherDisplay:10.37,2013-06-16 13:33:00,
2013-06-16 06:34:00,55.7,47.9,30.04,SE,144,3.5,3.5,75,0.00,SCT,,0.00,WeatherDisplay:10.37,2013-06-16 13:34:00,
2013-06-16 06:35:00,55.7,47.9,30.04,South,182,3.5,3.5,75,0.00,SCT,,0.00,WeatherDisplay:10.37,2013-06-16 13:35:00,
2013-06-16 06:37:00,56.0,48.2,30.04,ESE,106,5.0,5.0,75,0.00,SCT,,0.00,WeatherDisplay:10.37,2013-06-16 13:37:00,
2013-06-16 06:38:00,56.2,48.4,30.04,SE,138,8.1,8.1,75,0.00,SCT,,0.00,WeatherDisplay:10.37,2013-06-16 13:38:00,
2013-06-16 06:40:00,56.3,48.1,30.04,SW,233,3.5,3.5,74,0.00,SCT,,0.00,WeatherDisplay:10.37,2013-06-16 13:40:00,
2013-06-16 06:41:00,56.4,48.2,30.04,SSE,165,5.0,5.0,74,0.00,SCT,,0.00,WeatherDisplay:10.37,2013-06-16 13:41:00,
2013-06-16 06:42:00,56.5,47.9,30.04,East,79,5.8,5.8,73,0.00,SCT,,0.00,WeatherDisplay:10.37,2013-06-16 13:42:00,
2013-06-16 06:43:00,56.6,48.4,30.04,ESE,118,4.6,4.6,74,0.00,SCT,,0.00,WeatherDisplay:10.37,2013-06-16 13:43:00,
2013-06-16 06:45:00,56.8,48.6,30.04,SSE,152,4.6,4.6,74,0.00,SCT,,0.00,WeatherDisplay:10.37,2013-06-16 13:45:00,
2013-06-16 06:46:00,56.9,48.0,30.04,SE,132,4.6,4.6,72,0.00,SCT,,0.00,WeatherDisplay:10.37,2013-06-16 13:46:00,
2013-06-16 06:47:00,57.1,47.8,30.04,ESE,102,5.8,5.8,71,0.00,SCT,,0.00,WeatherDisplay:10.37,2013-06-16 13:47:00,
2013-06-16 06:49:00,57.1,48.2,30.04,ESE,103,5.8,5.8,72,0.00,SCT,,0.00,WeatherDisplay:10.37,2013-06-16 13:49:00,
2013-06-16 06:50:00,57.2,48.3,30.05,SE,130,3.5,3.5,72,0.00,SCT,,0.00,WeatherDisplay:10.37,2013-06-16 13:50:00,
2013-06-16 06:51:00,57.3,48.3,30.04,SE,128,3.5,3.5,72,0.00,SCT,,0.00,WeatherDisplay:10.37,2013-06-16 13:51:00,
2013-06-16 06:52:00,57.6,49.0,30.05,ESE,116,3.5,3.5,73,0.00,SCT,,0.00,WeatherDisplay:10.37,2013-06-16 13:52:00,
2013-06-16 06:55:00,57.9,48.6,30.05,SE,140,3.5,3.5,71,0.00,SCT,,0.00,WeatherDisplay:10.37,2013-06-16 13:55:00,
2013-06-16 06:56:00,58.1,48.7,30.05,ENE,74,3.5,3.5,71,0.00,SCT,,0.00,WeatherDisplay:10.37,2013-06-16 13:56:00,
2013-06-16 06:58:00,58.3,48.2,30.05,SE,128,4.6,4.6,69,0.00,SCT,,0.00,WeatherDisplay:10.37,2013-06-16 13:58:00,
2013-06-16 07:00:00,58.4,48.3,30.05,ESE,116,2.0,6.0,69,0.00,SCT,,0.00,WeatherDisplay:10.37,2013-06-16 14:00:00,
2013-06-16 07:01:00,58.6,48.8,30.05,SW,214,4.6,4.6,70,0.00,SCT,,0.00,WeatherDisplay:10.37,2013-06-16 14:01:00,
2013-06-16 07:02:00,58.7,48.6,30.05,ESE,114,4.6,4.6,69,0.00,SCT,,0.00,WeatherDisplay:10.37,2013-06-16 14:02:00,
2013-06-16 07:04:00,58.9,49.1,30.05,SSE,154,2.3,2.3,70,0.00,SCT,,0.00,WeatherDisplay:10.37,2013-06-16 14:04:00,
2013-06-16 07:05:00,58.9,48.7,30.05,SE,138,0.0,5.0,69,0.00,SCT,,0.00,WeatherDisplay:10.37,2013-06-16 14:05:00,
2013-06-16 07:06:00,59.0,48.8,30.05,SSE,154,1.2,0.0,69,0.00,SCT,,0.00,WeatherDisplay:10.37,2013-06-16 14:06:00,
2013-06-16 07:07:00,59.1,48.5,30.05,SE,125,2.0,2.0,68,0.00,SCT,,0.00,WeatherDisplay:10.37,2013-06-16 14:07:00,
2013-06-16 07:08:00,59.2,48.6,30.05,ESE,122,3.0,3.0,68,0.00,SCT,,0.00,WeatherDisplay:10.37,2013-06-16 14:08:00,
2013-06-16 07:09:00,59.3,48.7,30.05,SE,127,3.5,0.0,68,0.00,SCT,,0.00,WeatherDisplay:10.37,2013-06-16 14:09:00,
2013-06-16 07:10:00,59.3,48.7,30.05,SE,134,3.5,3.5,68,0.00,SCT,,0.00,WeatherDisplay:10.37,2013-06-16 14:10:00,
2013-06-16 07:12:00,59.4,48.8,30.05,South,175,2.3,2.3,68,0.00,SCT,,0.00,WeatherDisplay:10.37,2013-06-16 14:12:00,
2013-06-16 07:13:00,59.5,48.5,30.05,South,178,1.2,1.2,67,0.00,SCT,,0.00,WeatherDisplay:10.37,2013-06-16 14:13:00,
2013-06-16 07:15:00,59.4,48.4,30.05,SSE,158,1.2,1.2,67,0.00,SCT,,0.00,WeatherDisplay:10.37,2013-06-16 14:15:00,
2013-06-16 07:17:00,59.5,48.5,30.05,SE,138,2.3,2.3,67,0.00,SCT,,0.00,WeatherDisplay:10.37,2013-06-16 14:17:00,
2013-06-16 07:18:00,59.6,48.2,30.05,SE,139,2.3,2.3,66,0.00,SCT,,0.00,WeatherDisplay:10.37,2013-06-16 14:18:00,
2013-06-16 07:20:00,59.5,48.1,30.06,SSW,194,3.5,3.5,66,0.00,SCT,,0.00,WeatherDisplay:10.37,2013-06-16 14:20:00,
2013-06-16 07:22:00,59.6,48.6,30.06,SE,134,3.5,3.5,67,0.00,SCT,,0.00,WeatherDisplay:10.37,2013-06-16 14:22:00,
2013-06-16 07:23:00,59.8,48.8,30.06,SE,140,8.1,8.1,67,0.00,SCT,,0.00,WeatherDisplay:10.37,2013-06-16 14:23:00,
2013-06-16 07:24:00,59.9,48.5,30.06,SE,140,2.3,2.3,66,0.00,SCT,,0.00,WeatherDisplay:10.37,2013-06-16 14:24:00,
2013-06-16 07:25:00,60.1,49.5,30.06,SE,140,2.3,2.3,68,0.00,SCT,,0.00,WeatherDisplay:10.37,2013-06-16 14:25:00,
2013-06-16 07:27:00,60.5,49.5,30.06,SE,144,3.5,3.5,67,0.00,SCT,,0.00,WeatherDisplay:10.37,2013-06-16 14:27:00,
2013-06-16 07:28:00,60.7,49.3,30.06,ESE,103,0.0,0.1,66,0.00,SCT,,0.00,WeatherDisplay:10.37,2013-06-16 14:28:00,
2013-06-16 07:29:00,60.7,49.3,30.06,SSE,156,1.0,1.0,66,0.00,SCT,,0.00,WeatherDisplay:10.37,2013-06-16 14:29:00,
2013-06-16 07:30:00,60.9,49.1,30.06,SSE,160,1.2,1.2,65,0.00,SCT,,0.00,WeatherDisplay:10.37,2013-06-16 14:30:00,
2013-06-16 07:32:00,61.1,48.4,30.06,East,81,2.3,2.3,63,0.00,SCT,,0.00,WeatherDisplay:10.37,2013-06-16 14:32:00,
2013-06-16 07:34:00,61.3,49.4,30.06,SE,130,2.3,2.3,65,0.00,SCT,,0.00,WeatherDisplay:10.37,2013-06-16 14:34:00,
2013-06-16 07:35:00,61.5,49.2,30.06,ESE,122,4.6,4.6,64,0.00,SCT,,0.00,WeatherDisplay:10.37,2013-06-16 14:35:00,
2013-06-16 07:37:00,61.8,49.5,30.06,SE,131,3.5,3.5,64,0.00,SCT,,0.00,WeatherDisplay:10.37,2013-06-16 14:37:00,
2013-06-16 07:40:00,61.9,49.2,30.06,SE,125,1.2,1.2,63,0.00,SCT,,0.00,WeatherDisplay:10.37,2013-06-16 14:40:00,
2013-06-16 07:41:00,62.0,50.1,30.06,South,186,2.0,2.0,65,0.00,SCT,,0.00,WeatherDisplay:10.37,2013-06-16 14:41:00,
2013-06-16 07:42:00,62.2,49.4,30.06,ESE,114,2.3,2.3,63,0.00,SCT,,0.00,WeatherDisplay:10.37,2013-06-16 14:42:00,
2013-06-16 07:43:00,62.3,49.5,30.06,SE,130,2.3,2.3,63,0.00,SCT,,0.00,WeatherDisplay:10.37,2013-06-16 14:43:00,
2013-06-16 07:45:00,62.6,49.8,30.06,East,90,5.8,5.8,63,0.00,SCT,,0.00,WeatherDisplay:10.37,2013-06-16 14:45:00,
2013-06-16 07:46:00,62.7,49.5,30.06,East,81,1.2,1.2,62,0.00,SCT,,0.00,WeatherDisplay:10.37,2013-06-16 14:46:00,
2013-06-16 07:48:00,63.0,49.8,30.07,East,101,0.0,0.2,62,0.00,SCT,,0.00,WeatherDisplay:10.37,2013-06-16 14:48:00,
2013-06-16 07:49:00,63.1,49.9,30.06,SE,146,1.2,1.2,62,0.00,SCT,,0.00,WeatherDisplay:10.37,2013-06-16 14:49:00,
2013-06-16 07:50:00,63.3,50.1,30.06,SE,145,1.2,0.0,62,0.00,SCT,,0.00,WeatherDisplay:10.37,2013-06-16 14:50:00,
2013-06-16 07:51:00,63.5,49.8,30.06,ENE,77,2.3,2.3,61,0.00,SCT,,0.00,WeatherDisplay:10.37,2013-06-16 14:51:00,
2013-06-16 07:54:00,63.6,49.5,30.06,SE,141,3.5,3.5,60,0.00,SCT,,0.00,WeatherDisplay:10.37,2013-06-16 14:54:00,
2013-06-16 07:55:00,63.6,49.5,30.07,SE,130,1.0,1.0,60,0.00,SCT,,0.00,WeatherDisplay:10.37,2013-06-16 14:55:00,
2013-06-16 07:56:00,63.6,49.5,30.07,SE,130,1.0,1.0,60,0.00,SCT,,0.00,WeatherDisplay:10.37,2013-06-16 14:56:00,
2013-06-16 07:59:00,63.9,49.3,30.07,SE,125,3.5,0.0,59,0.00,SCT,,0.00,WeatherDisplay:10.37,2013-06-16 14:59:00,
2013-06-16 08:01:00,64.0,49.4,30.07,SSW,209,1.2,1.2,59,0.00,SCT,,0.00,WeatherDisplay:10.37,2013-06-16 15:01:00,
2013-06-16 08:02:00,64.1,49.5,30.07,SSW,201,1.2,0.0,59,0.00,SCT,,0.00,WeatherDisplay:10.37,2013-06-16 15:02:00,
2013-06-16 08:03:00,64.1,49.5,30.07,SSE,164,2.0,2.0,59,0.00,SCT,,0.00,WeatherDisplay:10.37,2013-06-16 15:03:00,
2013-06-16 08:04:00,64.2,49.1,30.07,South,176,3.5,3.5,58,0.00,SCT,,0.00,WeatherDisplay:10.37,2013-06-16 15:04:00,
2013-06-16 08:06:00,64.3,48.7,30.07,South,180,2.0,2.0,57,0.00,SCT,,0.00,WeatherDisplay:10.37,2013-06-16 15:06:00,
2013-06-16 08:07:00,64.3,48.7,30.07,SE,140,1.2,1.2,57,0.00,SCT,,0.00,WeatherDisplay:10.37,2013-06-16 15:07:00,
2013-06-16 08:10:00,64.5,48.9,30.07,SE,144,3.5,3.5,57,0.00,SCT,,0.00,WeatherDisplay:10.37,2013-06-16 15:10:00,
2013-06-16 08:12:00,64.7,49.1,30.07,SW,224,4.6,4.6,57,0.00,SCT,,0.00,WeatherDisplay:10.37,2013-06-16 15:12:00,
2013-06-16 08:13:00,64.8,49.2,30.07,NE,49,3.5,3.5,57,0.00,SCT,,0.00,WeatherDisplay:10.37,2013-06-16 15:13:00,
2013-06-16 08:15:00,64.9,49.3,30.07,ESE,119,3.5,3.5,57,0.00,SCT,,0.00,WeatherDisplay:10.37,2013-06-16 15:15:00,
2013-06-16 08:16:00,65.1,49.5,30.07,East,80,3.5,3.5,57,0.00,SCT,,0.00,WeatherDisplay:10.37,2013-06-16 15:16:00,
2013-06-16 08:17:00,65.2,49.6,30.07,SSE,147,1.2,1.2,57,0.00,SCT,,0.00,WeatherDisplay:10.37,2013-06-16 15:17:00,
2013-06-16 08:18:00,65.5,49.4,30.07,SSE,162,1.2,1.2,56,0.00,SCT,,0.00,WeatherDisplay:10.37,2013-06-16 15:18:00,
2013-06-16 08:21:00,65.7,49.1,30.07,East,88,3.5,3.5,55,0.00,SCT,,0.00,WeatherDisplay:10.37,2013-06-16 15:21:00,
2013-06-16 08:22:00,65.5,49.4,30.07,NNW,343,2.3,2.3,56,0.00,SCT,,0.00,WeatherDisplay:10.37,2013-06-16 15:22:00,
2013-06-16 08:23:00,65.5,49.4,30.07,NNW,342,2.3,2.3,56,0.00,SCT,,0.00,WeatherDisplay:10.37,2013-06-16 15:23:00,
2013-06-16 08:24:00,65.6,49.5,30.07,SE,127,0.0,0.2,56,0.00,SCT,,0.00,WeatherDisplay:10.37,2013-06-16 15:24:00,
2013-06-16 08:26:00,65.7,49.1,30.07,NE,50,3.5,3.5,55,0.00,SCT,,0.00,WeatherDisplay:10.37,2013-06-16 15:26:00,
2013-06-16 08:28:00,65.9,49.8,30.07,ESE,119,4.0,4.0,56,0.00,SCT,,0.00,WeatherDisplay:10.37,2013-06-16 15:28:00,
2013-06-16 08:29:00,66.0,49.8,30.07,East,98,3.5,3.5,56,0.00,SCT,,0.00,WeatherDisplay:10.37,2013-06-16 15:29:00,
2013-06-16 08:31:00,66.2,49.6,30.07,East,101,1.2,1.2,55,0.00,SCT,,0.00,WeatherDisplay:10.37,2013-06-16 15:31:00,
2013-06-16 08:32:00,66.4,49.7,30.08,SSW,205,5.0,5.0,55,0.00,SCT,,0.00,WeatherDisplay:10.37,2013-06-16 15:32:00,
2013-06-16 08:33:00,66.4,49.2,30.08,SSE,154,6.0,6.0,54,0.00,SCT,,0.00,WeatherDisplay:10.37,2013-06-16 15:33:00,
2013-06-16 08:37:00,66.0,49.4,30.08,SSE,168,0.0,0.0,55,0.00,SCT,,0.00,WeatherDisplay:10.37,2013-06-16 15:37:00,
2013-06-16 08:38:00,66.1,49.9,30.08,SSE,168,0.0,0.0,56,0.00,SCT,,0.00,WeatherDisplay:10.37,2013-06-16 15:38:00,
2013-06-16 08:39:00,66.2,49.1,30.08,SSE,154,0.0,0.0,54,0.00,SCT,,0.00,WeatherDisplay:10.37,2013-06-16 15:39:00,
2013-06-16 08:43:00,66.0,49.4,30.08,SE,134,2.3,0.0,55,0.00,SCT,,0.00,WeatherDisplay:10.37,2013-06-16 15:43:00,
2013-06-16 08:44:00,66.0,49.4,30.08,SSW,205,2.3,2.3,55,0.00,SCT,,0.00,WeatherDisplay:10.37,2013-06-16 15:44:00,
2013-06-16 08:45:00,66.0,49.4,30.08,SE,145,2.3,2.3,55,0.00,SCT,,0.00,WeatherDisplay:10.37,2013-06-16 15:45:00,
2013-06-16 08:46:00,66.1,49.0,30.08,SSE,150,2.3,2.3,54,0.00,SCT,,0.00,WeatherDisplay:10.37,2013-06-16 15:46:00,
2013-06-16 08:48:00,66.2,49.1,30.08,SSW,204,6.9,6.9,54,0.00,SCT,,0.00,WeatherDisplay:10.37,2013-06-16 15:48:00,
2013-06-16 08:50:00,66.2,48.6,30.08,SSW,210,6.9,6.9,53,0.00,SCT,,0.00,WeatherDisplay:10.37,2013-06-16 15:50:00,
2013-06-16 08:51:00,66.1,49.0,30.08,SSW,193,3.5,3.5,54,0.00,SCT,,0.00,WeatherDisplay:10.37,2013-06-16 15:51:00,
2013-06-16 08:53:00,66.2,49.1,30.08,SSE,154,3.5,3.5,54,0.00,SCT,,0.00,WeatherDisplay:10.37,2013-06-16 15:53:00,
2013-06-16 08:54:00,66.3,49.6,30.08,SE,131,5.8,5.8,55,0.00,SCT,,0.00,WeatherDisplay:10.37,2013-06-16 15:54:00,
2013-06-16 08:55:00,66.5,49.8,30.08,SW,236,5.8,5.8,55,0.00,SCT,,0.00,WeatherDisplay:10.37,2013-06-16 15:55:00,
2013-06-16 08:56:00,66.7,49.5,30.07,West,271,5.8,5.8,54,0.00,SCT,,0.00,WeatherDisplay:10.37,2013-06-16 15:56:00,
2013-06-16 08:58:00,66.9,49.2,30.07,SSE,147,2.3,2.3,53,0.00,SCT,,0.00,WeatherDisplay:10.37,2013-06-16 15:58:00,
2013-06-16 08:59:00,67.1,49.4,30.08,SSE,148,6.9,6.9,53,0.00,SCT,,0.00,WeatherDisplay:10.37,2013-06-16 15:59:00,
2013-06-16 09:00:00,67.0,49.3,30.08,South,190,0.0,2.4,53,0.00,SCT,,0.00,WeatherDisplay:10.37,2013-06-16 16:00:00,
2013-06-16 09:01:00,67.1,49.4,30.07,SE,127,3.5,3.5,53,0.00,SCT,,0.00,WeatherDisplay:10.37,2013-06-16 16:01:00,
2013-06-16 09:02:00,67.2,49.5,30.07,SE,126,3.5,3.5,53,0.00,SCT,,0.00,WeatherDisplay:10.37,2013-06-16 16:02:00,
2013-06-16 09:03:00,67.4,49.7,30.08,ESE,112,2.3,2.3,53,0.00,SCT,,0.00,WeatherDisplay:10.37,2013-06-16 16:03:00,
2013-06-16 09:05:00,67.7,49.4,30.08,SSE,149,11.5,11.5,52,0.00,SCT,,0.00,WeatherDisplay:10.37,2013-06-16 16:05:00,
2013-06-16 09:06:00,67.9,49.1,30.08,East,91,11.5,11.5,51,0.00,SCT,,0.00,WeatherDisplay:10.37,2013-06-16 16:06:00,
2013-06-16 09:07:00,68.1,49.3,30.08,SE,137,5.8,5.8,51,0.00,SCT,,0.00,WeatherDisplay:10.37,2013-06-16 16:07:00,
2013-06-16 09:08:00,68.1,49.3,30.08,SSE,162,4.6,4.6,51,0.00,SCT,,0.00,WeatherDisplay:10.37,2013-06-16 16:08:00,
2013-06-16 09:10:00,68.3,48.9,30.08,SE,130,8.1,8.1,50,0.00,SCT,,0.00,WeatherDisplay:10.37,2013-06-16 16:10:00,
2013-06-16 09:11:00,68.3,48.9,30.08,SE,129,8.1,8.1,50,0.00,SCT,,0.00,WeatherDisplay:10.37,2013-06-16 16:11:00,
2013-06-16 09:13:00,68.4,49.0,30.08,SSE,147,7.0,7.0,50,0.00,SCT,,0.00,WeatherDisplay:10.37,2013-06-16 16:13:00,
2013-06-16 09:14:00,68.5,49.1,30.08,ESE,106,8.1,8.1,50,0.00,SCT,,0.00,WeatherDisplay:10.37,2013-06-16 16:14:00,
2013-06-16 09:15:00,68.5,49.1,30.08,SE,138,2.0,8.0,50,0.00,SCT,,0.00,WeatherDisplay:10.37,2013-06-16 16:15:00,
2013-06-16 09:16:00,68.6,49.2,30.08,ENE,78,3.5,3.5,50,0.00,SCT,,0.00,WeatherDisplay:10.37,2013-06-16 16:16:00,
2013-06-16 09:18:00,69.0,48.5,30.08,East,80,8.1,8.1,48,0.00,SCT,,0.00,WeatherDisplay:10.37,2013-06-16 16:18:00,
2013-06-16 09:20:00,69.1,49.1,30.08,SE,141,8.1,8.1,49,0.00,SCT,,0.00,WeatherDisplay:10.37,2013-06-16 16:20:00,
2013-06-16 09:21:00,69.1,49.1,30.08,South,179,6.9,6.9,49,0.00,SCT,,0.00,WeatherDisplay:10.37,2013-06-16 16:21:00,
2013-06-16 09:23:00,69.2,48.7,30.08,SSE,152,5.8,5.8,48,0.00,SCT,,0.00,WeatherDisplay:10.37,2013-06-16 16:23:00,
2013-06-16 09:25:00,69.4,49.4,30.08,SW,226,5.8,5.8,49,0.00,SCT,,0.00,WeatherDisplay:10.37,2013-06-16 16:25:00,
2013-06-16 09:26:00,69.6,49.0,30.08,ESE,111,3.0,3.0,48,0.00,SCT,,0.00,WeatherDisplay:10.37,2013-06-16 16:26:00,
2013-06-16 09:28:00,69.9,48.7,30.08,SW,221,11.5,11.5,47,0.00,SCT,,0.00,WeatherDisplay:10.37,2013-06-16 16:28:00,
2013-06-16 09:29:00,69.9,49.3,30.08,SSE,156,11.5,11.5,48,0.00,SCT,,0.00,WeatherDisplay:10.37,2013-06-16 16:29:00,
2013-06-16 09:30:00,69.9,49.3,30.08,SSE,164,2.0,12.0,48,0.00,SCT,,0.00,WeatherDisplay:10.37,2013-06-16 16:30:00,
2013-06-16 09:31:00,70.2,49.6,30.08,SSE,147,6.9,6.9,48,0.00,SCT,,0.00,WeatherDisplay:10.37,2013-06-16 16:31:00,
2013-06-16 09:34:00,70.5,49.3,30.08,SSE,153,3.5,3.5,47,0.00,SCT,,0.00,WeatherDisplay:10.37,2013-06-16 16:34:00,
2013-06-16 09:35:00,70.5,49.3,30.08,SE,145,1.0,7.0,47,0.00,SCT,,0.00,WeatherDisplay:10.37,2013-06-16 16:35:00,
2013-06-16 09:36:00,70.8,49.6,30.08,SE,127,2.3,2.3,47,0.00,SCT,,0.00,WeatherDisplay:10.37,2013-06-16 16:36:00,
2013-06-16 09:40:00,70.9,49.1,30.08,ESE,119,5.8,5.8,46,0.00,SCT,,0.00,WeatherDisplay:10.37,2013-06-16 16:40:00,
2013-06-16 09:41:00,71.0,49.7,30.08,SSW,194,5.8,5.8,47,0.00,SCT,,0.00,WeatherDisplay:10.37,2013-06-16 16:41:00,
2013-06-16 09:42:00,71.0,49.2,30.08,South,176,6.0,6.0,46,0.00,SCT,,0.00,WeatherDisplay:10.37,2013-06-16 16:42:00,
2013-06-16 09:43:00,71.0,49.2,30.08,SE,133,6.9,6.9,46,0.00,SCT,,0.00,WeatherDisplay:10.37,2013-06-16 16:43:00,
2013-06-16 09:45:00,71.0,49.2,30.08,SE,141,2.0,7.0,46,0.00,SCT,,0.00,WeatherDisplay:10.37,2013-06-16 16:45:00,
2013-06-16 09:46:00,71.0,49.2,30.09,SE,125,1.2,1.2,46,0.00,SCT,,0.00,WeatherDisplay:10.37,2013-06-16 16:46:00,
2013-06-16 09:47:00,71.2,49.9,30.09,ESE,115,3.5,3.5,47,0.00,SCT,,0.00,WeatherDisplay:10.37,2013-06-16 16:47:00,
2013-06-16 09:48:00,71.2,49.9,30.09,ESE,115,3.5,3.5,47,0.00,SCT,,0.00,WeatherDisplay:10.37,2013-06-16 16:48:00,
2013-06-16 09:50:00,71.4,49.5,30.09,SSW,195,3.5,3.5,46,0.00,SCT,,0.00,WeatherDisplay:10.37,2013-06-16 16:50:00,
2013-06-16 09:52:00,71.5,50.2,30.09,ESE,116,2.3,2.3,47,0.00,SCT,,0.00,WeatherDisplay:10.37,2013-06-16 16:52:00,
2013-06-16 09:53:00,71.7,50.4,30.08,SSE,161,2.3,2.3,47,0.00,SCT,,0.00,WeatherDisplay:10.37,2013-06-16 16:53:00,
2013-06-16 09:55:00,71.8,48.7,30.08,SE,124,4.6,4.6,44,0.00,SCT,,0.00,WeatherDisplay:10.37,2013-06-16 16:55:00,
2013-06-16 09:58:00,71.8,49.9,30.08,SSE,168,5.8,5.8,46,0.00,SCT,,0.00,WeatherDisplay:10.37,2013-06-16 16:58:00,
2013-06-16 10:00:00,72.1,49.0,30.08,ENE,63,4.0,4.0,44,0.00,SCT,,0.00,WeatherDisplay:10.37,2013-06-16 17:00:00,
2013-06-16 10:03:00,72.3,49.8,30.08,SSE,148,8.1,8.1,45,0.00,SCT,,0.00,WeatherDisplay:10.37,2013-06-16 17:03:00,
2013-06-16 10:04:00,72.4,49.3,30.08,ENE,75,5.8,5.8,44,0.00,SCT,,0.00,WeatherDisplay:10.37,2013-06-16 17:04:00,
2013-06-16 10:05:00,72.4,49.2,30.08,ESE,120,2.0,8.0,44,0.00,SCT,,0.00,WeatherDisplay:10.37,2013-06-16 17:05:00,
2013-06-16 10:06:00,72.5,49.3,30.08,SE,146,4.6,4.6,44,0.00,SCT,,0.00,WeatherDisplay:10.37,2013-06-16 17:06:00,
2013-06-16 10:10:00,72.1,49.0,30.08,SSE,150,4.6,4.6,44,0.00,SCT,,0.00,WeatherDisplay:10.37,2013-06-16 17:10:00,
2013-06-16 10:11:00,72.1,49.6,30.08,SSE,163,5.8,5.8,45,0.00,SCT,,0.00,WeatherDisplay:10.37,2013-06-16 17:11:00,
2013-06-16 10:12:00,72.2,49.7,30.08,ENE,78,2.3,2.3,45,0.00,SCT,,0.00,WeatherDisplay:10.37,2013-06-16 17:12:00,
2013-06-16 10:15:00,72.8,49.6,30.08,NE,45,3.5,3.5,44,0.00,SCT,,0.00,WeatherDisplay:10.37,2013-06-16 17:15:00,
2013-06-16 10:16:00,73.0,49.8,30.08,ENE,58,2.0,2.0,44,0.00,SCT,,0.00,WeatherDisplay:10.37,2013-06-16 17:16:00,
2013-06-16 10:17:00,73.1,49.3,30.08,East,100,5.8,5.8,43,0.00,SCT,,0.00,WeatherDisplay:10.37,2013-06-16 17:17:00,
2013-06-16 10:18:00,73.2,49.4,30.08,NE,56,8.0,8.0,43,0.00,SCT,,0.00,WeatherDisplay:10.37,2013-06-16 17:18:00,
2013-06-16 10:21:00,73.5,49.6,30.08,SE,143,4.6,4.6,43,0.00,SCT,,0.00,WeatherDisplay:10.37,2013-06-16 17:21:00,
2013-06-16 10:22:00,73.6,49.1,30.08,SSE,164,3.5,3.5,42,0.00,SCT,,0.00,WeatherDisplay:10.37,2013-06-16 17:22:00,
2013-06-16 10:23:00,73.6,49.1,30.08,South,171,3.5,3.5,42,0.00,SCT,,0.00,WeatherDisplay:10.37,2013-06-16 17:23:00,
2013-06-16 10:27:00,73.8,49.3,30.08,ESE,107,5.8,5.8,42,0.00,SCT,,0.00,WeatherDisplay:10.37,2013-06-16 17:27:00,
2013-06-16 10:29:00,73.9,49.4,30.08,SSE,153,4.6,4.6,42,0.00,SCT,,0.00,WeatherDisplay:10.37,2013-06-16 17:29:00,
2013-06-16 10:30:00,74.0,49.4,30.08,SSE,151,2.0,2.0,42,0.00,SCT,,0.00,WeatherDisplay:10.37,2013-06-16 17:30:00,
2013-06-16 10:32:00,74.2,49.6,30.08,SSW,193,1.2,0.0,42,0.00,SCT,,0.00,WeatherDisplay:10.37,2013-06-16 17:32:00,
2013-06-16 10:33:00,74.2,49.0,30.08,WSW,244,0.0,0.0,41,0.00,SCT,,0.00,WeatherDisplay:10.37,2013-06-16 17:33:00,
2013-06-16 10:34:00,74.3,48.4,30.09,WSW,244,0.0,0.1,40,0.00,SCT,,0.00,WeatherDisplay:10.37,2013-06-16 17:34:00,
2013-06-16 10:36:00,74.3,49.1,30.08,South,181,6.0,6.0,41,0.00,SCT,,0.00,WeatherDisplay:10.37,2013-06-16 17:36:00,
2013-06-16 10:37:00,74.4,49.2,30.08,East,96,5.8,5.8,41,0.00,SCT,,0.00,WeatherDisplay:10.37,2013-06-16 17:37:00,
2013-06-16 10:38:00,74.4,49.2,30.08,East,95,5.8,5.8,41,0.00,SCT,,0.00,WeatherDisplay:10.37,2013-06-16 17:38:00,
2013-06-16 10:39:00,74.5,48.6,30.08,ESE,116,4.6,4.6,40,0.00,SCT,,0.00,WeatherDisplay:10.37,2013-06-16 17:39:00,
2013-06-16 10:41:00,74.6,48.7,30.08,NE,45,4.6,4.6,40,0.00,SCT,,0.00,WeatherDisplay:10.37,2013-06-16 17:41:00,
2013-06-16 10:43:00,74.8,48.9,30.08,SE,146,4.0,4.0,40,0.00,SCT,,0.00,WeatherDisplay:10.37,2013-06-16 17:43:00,
2013-06-16 10:44:00,74.8,49.5,30.08,SE,127,5.8,5.8,41,0.00,SCT,,0.00,WeatherDisplay:10.37,2013-06-16 17:44:00,
2013-06-16 10:45:00,74.8,48.9,30.08,ESE,104,1.0,6.0,40,0.00,SCT,,0.00,WeatherDisplay:10.37,2013-06-16 17:45:00,
2013-06-16 10:46:00,75.1,49.1,30.08,East,87,1.2,1.2,40,0.00,SCT,,0.00,WeatherDisplay:10.37,2013-06-16 17:46:00,
2013-06-16 10:48:00,75.3,49.3,30.08,SE,133,2.3,2.3,40,0.00,SCT,,0.00,WeatherDisplay:10.37,2013-06-16 17:48:00,
2013-06-16 10:49:00,75.3,49.3,30.08,SE,133,4.0,4.0,40,0.00,SCT,,0.00,WeatherDisplay:10.37,2013-06-16 17:49:00,
2013-06-16 10:51:00,75.7,49.7,30.08,SE,140,6.9,6.9,40,0.00,SCT,,0.00,WeatherDisplay:10.37,2013-06-16 17:51:00,
2013-06-16 10:52:00,75.8,49.1,30.08,SSW,199,4.6,4.6,39,0.00,SCT,,0.00,WeatherDisplay:10.37,2013-06-16 17:52:00,
2013-06-16 10:53:00,76.0,49.2,30.08,SSW,204,2.3,2.3,39,0.00,SCT,,0.00,WeatherDisplay:10.37,2013-06-16 17:53:00,
2013-06-16 10:54:00,76.1,49.3,30.08,South,188,2.3,2.3,39,0.00,SCT,,0.00,WeatherDisplay:10.37,2013-06-16 17:54:00,
2013-06-16 10:56:00,76.3,48.8,30.08,SSE,162,3.0,3.0,38,0.00,SCT,,0.00,WeatherDisplay:10.37,2013-06-16 17:56:00,
2013-06-16 10:57:00,76.3,48.8,30.08,SSE,161,1.2,1.2,38,0.00,SCT,,0.00,WeatherDisplay:10.37,2013-06-16 17:57:00,
2013-06-16 10:58:00,76.2,48.7,30.09,ENE,72,3.5,3.5,38,0.00,SCT,,0.00,WeatherDisplay:10.37,2013-06-16 17:58:00,
2013-06-16 10:59:00,76.2,48.7,30.09,ENE,78,2.3,2.3,38,0.00,SCT,,0.00,WeatherDisplay:10.37,2013-06-16 17:59:00,
2013-06-16 11:01:00,76.3,48.8,30.08,ESE,121,6.9,6.9,38,0.00,SCT,,0.00,WeatherDisplay:10.37,2013-06-16 18:01:00,
2013-06-16 11:02:00,76.4,48.9,30.08,ESE,123,6.9,6.9,38,0.00,SCT,,0.00,WeatherDisplay:10.37,2013-06-16 18:02:00,
2013-06-16 11:04:00,76.6,49.1,30.08,ESE,108,4.0,4.0,38,0.00,SCT,,0.00,WeatherDisplay:10.37,2013-06-16 18:04:00,
2013-06-16 11:05:00,76.8,49.3,30.08,SSE,167,3.5,3.5,38,0.00,SCT,,0.00,WeatherDisplay:10.37,2013-06-16 18:05:00,
2013-06-16 11:06:00,76.8,48.6,30.08,SE,132,3.5,3.5,37,0.00,SCT,,0.00,WeatherDisplay:10.37,2013-06-16 18:06:00,
2013-06-16 11:07:00,76.9,49.4,30.09,East,94,3.5,3.5,38,0.00,SCT,,0.00,WeatherDisplay:10.37,2013-06-16 18:07:00,
2013-06-16 11:09:00,76.9,49.4,30.08,ENE,65,6.9,6.9,38,0.00,SCT,,0.00,WeatherDisplay:10.37,2013-06-16 18:09:00,
2013-06-16 11:10:00,76.9,49.4,30.09,SE,128,6.9,6.9,38,0.00,SCT,,0.00,WeatherDisplay:10.37,2013-06-16 18:10:00,
2013-06-16 11:11:00,77.1,49.5,30.08,SSE,164,4.6,4.6,38,0.00,SCT,,0.00,WeatherDisplay:10.37,2013-06-16 18:11:00,
2013-06-16 11:12:00,77.2,48.9,30.08,ESE,121,4.6,4.6,37,0.00,SCT,,0.00,WeatherDisplay:10.37,2013-06-16 18:12:00,
2013-06-16 11:13:00,77.3,49.0,30.08,East,98,8.1,8.1,37,0.00,SCT,,0.00,WeatherDisplay:10.37,2013-06-16 18:13:00,
2013-06-16 11:15:00,77.3,49.0,30.08,NE,37,5.0,5.0,37,0.00,SCT,,0.00,WeatherDisplay:10.37,2013-06-16 18:15:00,
2013-06-16 11:17:00,77.3,49.0,30.09,NE,50,5.8,5.8,37,0.00,SCT,,0.00,WeatherDisplay:10.37,2013-06-16 18:17:00,
2013-06-16 11:18:00,77.4,49.1,30.08,ESE,116,5.8,5.8,37,0.00,SCT,,0.00,WeatherDisplay:10.37,2013-06-16 18:18:00,
2013-06-16 11:19:00,77.5,49.9,30.08,ENE,60,3.5,3.5,38,0.00,SCT,,0.00,WeatherDisplay:10.37,2013-06-16 18:19:00,
2013-06-16 11:20:00,77.6,49.3,30.08,ENE,64,4.0,4.0,37,0.00,SCT,,0.00,WeatherDisplay:10.37,2013-06-16 18:20:00,
2013-06-16 11:24:00,77.7,48.6,30.08,SSE,149,8.1,8.1,36,0.00,SCT,,0.00,WeatherDisplay:10.37,2013-06-16 18:24:00,
2013-06-16 11:25:00,77.7,48.6,30.08,East,97,2.0,8.0,36,0.00,SCT,,0.00,WeatherDisplay:10.37,2013-06-16 18:25:00,
2013-06-16 11:26:00,77.7,50.1,30.08,East,89,6.0,6.0,38,0.00,SCT,,0.00,WeatherDisplay:10.37,2013-06-16 18:26:00,
2013-06-16 11:27:00,77.7,50.1,30.08,North,2,5.8,5.8,38,0.00,SCT,,0.00,WeatherDisplay:10.37,2013-06-16 18:27:00,
2013-06-16 11:29:00,77.8,50.2,30.08,WSW,237,3.5,3.5,38,0.00,SCT,,0.00,WeatherDisplay:10.37,2013-06-16 18:29:00,
2013-06-16 11:30:00,77.8,50.2,30.08,SSE,161,5.8,5.8,38,0.00,SCT,,0.00,WeatherDisplay:10.37,2013-06-16 18:30:00,
2013-06-16 11:31:00,78.0,48.9,30.08,ESE,105,7.0,7.0,36,0.00,SCT,,0.00,WeatherDisplay:10.37,2013-06-16 18:31:00,
2013-06-16 11:33:00,78.0,49.6,30.08,NE,45,6.9,6.9,37,0.00,SCT,,0.00,WeatherDisplay:10.37,2013-06-16 18:33:00,
2013-06-16 11:36:00,78.2,50.5,30.08,SSE,152,3.5,3.5,38,0.00,SCT,,0.00,WeatherDisplay:10.37,2013-06-16 18:36:00,
2013-06-16 11:37:00,78.4,50.0,30.08,SW,221,5.8,5.8,37,0.00,SCT,,0.00,WeatherDisplay:10.37,2013-06-16 18:37:00,
2013-06-16 11:38:00,78.5,49.3,30.09,ESE,106,4.6,4.6,36,0.00,SCT,,0.00,WeatherDisplay:10.37,2013-06-16 18:38:00,
2013-06-16 11:41:00,78.7,49.5,30.09,East,80,6.9,6.9,36,0.00,SCT,,0.00,WeatherDisplay:10.37,2013-06-16 18:41:00,
2013-06-16 11:42:00,78.7,49.5,30.08,ESE,117,10.4,10.4,36,0.00,SCT,,0.00,WeatherDisplay:10.37,2013-06-16 18:42:00,
2013-06-16 11:43:00,78.8,49.6,30.09,South,187,10.4,10.4,36,0.00,SCT,,0.00,WeatherDisplay:10.37,2013-06-16 18:43:00,
2013-06-16 11:45:00,78.9,49.7,30.09,ESE,117,4.0,4.0,36,0.00,SCT,,0.00,WeatherDisplay:10.37,2013-06-16 18:45:00,
2013-06-16 11:46:00,79.1,49.8,30.09,East,94,7.0,7.0,36,0.00,SCT,,0.00,WeatherDisplay:10.37,2013-06-16 18:46:00,
2013-06-16 11:47:00,79.1,49.8,30.09,ENE,71,3.5,3.5,36,0.00,SCT,,0.00,WeatherDisplay:10.37,2013-06-16 18:47:00,
2013-06-16 11:48:00,79.1,49.8,30.09,ESE,105,6.9,6.9,36,0.00,SCT,,0.00,WeatherDisplay:10.37,2013-06-16 18:48:00,
2013-06-16 11:50:00,79.2,49.1,30.09,SE,124,2.0,12.0,35,0.00,SCT,,0.00,WeatherDisplay:10.37,2013-06-16 18:50:00,
2013-06-16 11:51:00,79.2,49.9,30.09,SSW,198,11.5,11.5,36,0.00,SCT,,0.00,WeatherDisplay:10.37,2013-06-16 18:51:00,
2013-06-16 11:53:00,79.3,50.0,30.08,SSE,158,3.5,3.5,36,0.00,SCT,,0.00,WeatherDisplay:10.37,2013-06-16 18:53:00,
2013-06-16 11:56:00,79.6,49.5,30.08,SSE,148,3.5,3.5,35,0.00,SCT,,0.00,WeatherDisplay:10.37,2013-06-16 18:56:00,
2013-06-16 11:57:00,79.7,49.6,30.09,SE,144,5.8,5.8,35,0.00,SCT,,0.00,WeatherDisplay:10.37,2013-06-16 18:57:00,
2013-06-16 11:58:00,79.8,49.7,30.08,South,182,5.8,5.8,35,0.00,SCT,,0.00,WeatherDisplay:10.37,2013-06-16 18:58:00,
2013-06-16 11:59:00,79.8,49.7,30.08,East,100,5.8,5.8,35,0.00,SCT,,0.00,WeatherDisplay:10.37,2013-06-16 18:59:00,
2013-06-16 12:01:00,79.9,49.0,30.08,SE,125,5.8,5.8,34,0.00,SCT,,0.00,WeatherDisplay:10.37,2013-06-16 19:01:00,
2013-06-16 12:03:00,79.9,49.0,30.09,ESE,122,5.8,5.8,34,0.00,SCT,,0.00,WeatherDisplay:10.37,2013-06-16 19:03:00,
2013-06-16 12:04:00,80.0,49.1,30.08,ESE,118,4.6,4.6,34,0.00,SCT,,0.00,WeatherDisplay:10.37,2013-06-16 19:04:00,
2013-06-16 12:05:00,80.0,49.1,30.08,SE,146,3.5,3.5,34,0.00,SCT,,0.00,WeatherDisplay:10.37,2013-06-16 19:05:00,
2013-06-16 12:06:00,80.2,50.1,30.08,ESE,106,5.8,5.8,35,0.00,SCT,,0.00,WeatherDisplay:10.37,2013-06-16 19:06:00,
2013-06-16 12:08:00,80.3,50.1,30.08,SSE,157,3.5,3.5,35,0.00,SCT,,0.00,WeatherDisplay:10.37,2013-06-16 19:08:00,
2013-06-16 12:09:00,80.5,49.5,30.08,SE,132,1.2,1.3,34,0.00,SCT,,0.00,WeatherDisplay:10.37,2013-06-16 19:09:00,
2013-06-16 12:10:00,80.6,49.6,30.08,ESE,118,4.6,4.6,34,0.00,SCT,,0.00,WeatherDisplay:10.37,2013-06-16 19:10:00,
2013-06-16 12:11:00,80.6,49.6,30.08,SE,124,4.6,4.6,34,0.00,SCT,,0.00,WeatherDisplay:10.37,2013-06-16 19:11:00,
2013-06-16 12:14:00,81.0,50.0,30.09,WNW,293,2.3,2.3,34,0.00,SCT,,0.00,WeatherDisplay:10.37,2013-06-16 19:14:00,
2013-06-16 12:16:00,81.2,49.4,30.08,ENE,58,5.8,5.8,33,0.00,SCT,,0.00,WeatherDisplay:10.37,2013-06-16 19:16:00,
2013-06-16 12:17:00,81.2,49.4,30.09,ESE,107,5.8,5.8,33,0.00,SCT,,0.00,WeatherDisplay:10.37,2013-06-16 19:17:00,
2013-06-16 12:19:00,81.5,50.4,30.09,SE,124,6.9,6.9,34,0.00,SCT,,0.00,WeatherDisplay:10.37,2013-06-16 19:19:00,
2013-06-16 12:20:00,81.5,50.4,30.09,SE,125,6.9,6.9,34,0.00,SCT,,0.00,WeatherDisplay:10.37,2013-06-16 19:20:00,
2013-06-16 12:21:00,81.6,49.7,30.08,ESE,110,3.5,3.5,33,0.00,SCT,,0.00,WeatherDisplay:10.37,2013-06-16 19:21:00,
2013-06-16 12:22:00,81.6,49.7,30.09,ENE,74,3.5,3.5,33,0.00,SCT,,0.00,WeatherDisplay:10.37,2013-06-16 19:22:00,
2013-06-16 12:24:00,81.5,49.6,30.09,ESE,113,3.5,3.5,33,0.00,SCT,,0.00,WeatherDisplay:10.37,2013-06-16 19:24:00,
2013-06-16 12:25:00,81.6,49.7,30.08,ESE,115,3.5,3.5,33,0.00,SCT,,0.00,WeatherDisplay:10.37,2013-06-16 19:25:00,
2013-06-16 12:26:00,81.6,49.7,30.09,ENE,67,3.5,3.5,33,0.00,SCT,,0.00,WeatherDisplay:10.37,2013-06-16 19:26:00,
2013-06-16 12:27:00,81.7,49.8,30.09,SSW,203,3.5,3.5,33,0.00,SCT,,0.00,WeatherDisplay:10.37,2013-06-16 19:27:00,
2013-06-16 12:30:00,81.9,50.0,30.08,ESE,115,1.0,7.0,33,0.00,SCT,,0.00,WeatherDisplay:10.37,2013-06-16 19:30:00,
2013-06-16 12:31:00,82.1,50.1,30.09,East,84,6.9,6.9,33,0.00,SCT,,0.00,WeatherDisplay:10.37,2013-06-16 19:31:00,
2013-06-16 12:32:00,82.2,50.2,30.08,SE,136,4.6,4.6,33,0.00,SCT,,0.00,WeatherDisplay:10.37,2013-06-16 19:32:00,
2013-06-16 12:35:00,82.4,49.6,30.09,SE,128,7.0,7.0,32,0.00,SCT,,0.00,WeatherDisplay:10.37,2013-06-16 19:35:00,
2013-06-16 12:36:00,82.4,50.4,30.08,SE,125,6.9,6.9,33,0.00,SCT,,0.00,WeatherDisplay:10.37,2013-06-16 19:36:00,
2013-06-16 12:37:00,82.5,49.7,30.08,East,88,6.9,6.9,32,0.00,SCT,,0.00,WeatherDisplay:10.37,2013-06-16 19:37:00,
2013-06-16 12:39:00,82.5,49.7,30.08,SSE,161,5.8,5.8,32,0.00,SCT,,0.00,WeatherDisplay:10.37,2013-06-16 19:39:00,
2013-06-16 12:41:00,82.6,50.6,30.08,ESE,120,10.4,10.4,33,0.00,SCT,,0.00,WeatherDisplay:10.37,2013-06-16 19:41:00,
2013-06-16 12:42:00,82.7,49.8,30.08,WNW,283,10.4,10.4,32,0.00,SCT,,0.00,WeatherDisplay:10.37,2013-06-16 19:42:00,
2013-06-16 12:44:00,82.7,49.8,30.08,SE,143,11.5,11.5,32,0.00,SCT,,0.00,WeatherDisplay:10.37,2013-06-16 19:44:00,
2013-06-16 12:45:00,82.7,50.7,30.08,SE,144,11.5,11.5,33,0.00,SCT,,0.00,WeatherDisplay:10.37,2013-06-16 19:45:00,
2013-06-16 12:47:00,82.8,50.8,30.08,SSE,162,8.1,8.1,33,0.00,SCT,,0.00,WeatherDisplay:10.37,2013-06-16 19:47:00,
2013-06-16 12:49:00,82.9,50.8,30.08,SE,139,4.6,4.6,33,0.00,SCT,,0.00,WeatherDisplay:10.37,2013-06-16 19:49:00,
2013-06-16 12:50:00,83.0,50.9,30.08,ESE,104,3.5,3.5,33,0.00,SCT,,0.00,WeatherDisplay:10.37,2013-06-16 19:50:00,
2013-06-16 12:53:00,83.2,50.3,30.08,SW,231,8.1,8.1,32,0.00,SCT,,0.00,WeatherDisplay:10.37,2013-06-16 19:53:00,
2013-06-16 12:55:00,83.3,50.4,30.08,SE,127,4.0,4.0,32,0.00,SCT,,0.00,WeatherDisplay:10.37,2013-06-16 19:55:00,
2013-06-16 12:56:00,83.3,50.4,30.08,SE,126,4.0,4.0,32,0.00,SCT,,0.00,WeatherDisplay:10.37,2013-06-16 19:56:00,
2013-06-16 12:58:00,83.5,50.5,30.08,SE,141,7.0,7.0,32,0.00,SCT,,0.00,WeatherDisplay:10.37,2013-06-16 19:58:00,
2013-06-16 13:00:00,83.6,50.6,30.08,ESE,111,10.4,10.4,32,0.00,SCT,,0.00,WeatherDisplay:10.37,2013-06-16 20:00:00,
2013-06-16 13:01:00,83.7,50.7,30.08,SE,126,8.1,8.1,32,0.00,SCT,,0.00,WeatherDisplay:10.37,2013-06-16 20:01:00,
2013-06-16 13:03:00,84.0,51.0,30.08,WSW,245,4.6,4.6,32,0.00,SCT,,0.00,WeatherDisplay:10.37,2013-06-16 20:03:00,
2013-06-16 13:04:00,84.0,50.1,30.08,South,178,2.3,2.3,31,0.00,SCT,,0.00,WeatherDisplay:10.37,2013-06-16 20:04:00,
2013-06-16 13:06:00,84.1,50.2,30.08,East,95,3.5,3.5,31,0.00,SCT,,0.00,WeatherDisplay:10.37,2013-06-16 20:06:00,
2013-06-16 13:07:00,84.2,49.4,30.08,WSW,249,4.6,4.6,30,0.00,SCT,,0.00,WeatherDisplay:10.37,2013-06-16 20:07:00,
2013-06-16 13:09:00,84.2,50.3,30.08,ESE,118,5.0,5.0,31,0.00,SCT,,0.00,WeatherDisplay:10.37,2013-06-16 20:09:00,
2013-06-16 13:10:00,84.3,49.5,30.08,SW,218,4.6,4.6,30,0.00,SCT,,0.00,WeatherDisplay:10.37,2013-06-16 20:10:00,
2013-06-16 13:11:00,84.3,50.4,30.07,SE,136,6.9,6.9,31,0.00,SCT,,0.00,WeatherDisplay:10.37,2013-06-16 20:11:00,
2013-06-16 13:12:00,84.3,50.4,30.08,SSE,165,6.9,6.9,31,0.00,SCT,,0.00,WeatherDisplay:10.37,2013-06-16 20:12:00,
2013-06-16 13:13:00,84.4,49.6,30.08,NNE,33,3.5,3.5,30,0.00,SCT,,0.00,WeatherDisplay:10.37,2013-06-16 20:13:00,
2013-06-16 13:15:00,84.5,49.7,30.08,South,187,3.5,3.5,30,0.00,SCT,,0.00,WeatherDisplay:10.37,2013-06-16 20:15:00,
2013-06-16 13:16:00,84.6,49.7,30.08,SE,132,5.0,5.0,30,0.00,SCT,,0.00,WeatherDisplay:10.37,2013-06-16 20:16:00,
2013-06-16 13:17:00,84.7,49.8,30.08,ESE,103,4.6,4.6,30,0.00,SCT,,0.00,WeatherDisplay:10.37,2013-06-16 20:17:00,
2013-06-16 13:18:00,84.7,49.8,30.08,ESE,107,4.6,4.6,30,0.00,SCT,,0.00,WeatherDisplay:10.37,2013-06-16 20:18:00,
2013-06-16 13:20:00,84.8,49.9,30.08,South,177,6.9,6.9,30,0.00,SCT,,0.00,WeatherDisplay:10.37,2013-06-16 20:20:00,
2013-06-16 13:22:00,84.8,49.0,30.08,ENE,60,6.9,6.9,29,0.00,SCT,,0.00,WeatherDisplay:10.37,2013-06-16 20:22:00,
2013-06-16 13:23:00,84.8,49.0,30.08,ENE,60,6.9,6.9,29,0.00,SCT,,0.00,WeatherDisplay:10.37,2013-06-16 20:23:00,
2013-06-16 13:24:00,84.8,49.0,30.08,ENE,60,6.9,6.9,29,0.00,SCT,,0.00,WeatherDisplay:10.37,2013-06-16 20:24:00,